Wetterdaten: Donnerstag, 03.05.2018
Datum Zeit Temp. Aussen Temp. o. S. +5cm Feuchte Auss BlattFeu 1 Luftdruck Regen Sonnenschein Regendauer Solar Windben Empfang
03.05.2018 00:00 13,5 C 12,8 C 11,7 C 65 % 0 lf 1010,3 hPa 0,0 l/m 0 min 0 min 0 W/m 9,0 km/h (2 Bft) 97,87 %
03.05.2018 00:02 13,5 C 12,8 C 11,7 C 65 % 0 lf 1010,2 hPa 0,0 l/m 0 min 0 min 0 W/m 9,0 km/h (2 Bft) 100,00 %
03.05.2018 00:04 13,5 C 12,8 C 11,7 C 65 % 0 lf 1010,3 hPa 0,0 l/m 0 min 0 min 0 W/m 9,0 km/h (2 Bft) 97,83 %
03.05.2018 00:08 13,4 C 12,8 C 11,7 C 66 % 0 lf 1010,2 hPa 0,0 l/m 0 min 0 min 0 W/m 6,8 km/h (2 Bft) 99,00 %
03.05.2018 00:10 13,4 C 12,8 C 11,7 C 66 % 0 lf 1010,3 hPa 0,0 l/m 0 min 0 min 0 W/m 9,0 km/h (2 Bft) 95,74 %
03.05.2018 00:12 13,4 C 12,8 C 11,7 C 66 % 0 lf 1010,4 hPa 0,0 l/m 0 min 0 min 0 W/m 9,0 km/h (2 Bft) 97,87 %
03.05.2018 00:14 13,4 C 12,8 C 11,7 C 66 % 0 lf 1010,4 hPa 0,0 l/m 0 min 0 min 0 W/m 9,0 km/h (2 Bft) 93,62 %
03.05.2018 00:16 13,4 C 12,8 C 11,7 C 66 % 0 lf 1010,4 hPa 0,0 l/m 0 min 0 min 0 W/m 6,8 km/h (2 Bft) 97,87 %
03.05.2018 00:18 13,4 C 12,8 C 11,7 C 66 % 0 lf 1010,3 hPa 0,0 l/m 0 min 0 min 0 W/m 6,8 km/h (2 Bft) 97,83 %
03.05.2018 00:20 13,4 C 12,8 C 11,7 C 66 % 0 lf 1010,4 hPa 0,0 l/m 0 min 0 min 0 W/m 6,8 km/h (2 Bft) 97,87 %
03.05.2018 00:22 13,4 C 12,8 C 11,7 C 66 % 0 lf 1010,4 hPa 0,0 l/m 0 min 0 min 0 W/m 9,0 km/h (2 Bft) 97,87 %
03.05.2018 00:24 13,4 C 12,8 C 11,7 C 66 % 0 lf 1010,4 hPa 0,0 l/m 0 min 0 min 0 W/m 9,0 km/h (2 Bft) 97,87 %
03.05.2018 00:26 13,4 C 12,8 C 11,7 C 66 % 0 lf 1010,4 hPa 0,0 l/m 0 min 0 min 0 W/m 15,8 km/h (3 Bft) 95,74 %
03.05.2018 00:28 13,4 C 12,8 C 11,7 C 66 % 0 lf 1010,5 hPa 0,0 l/m 0 min 0 min 0 W/m 9,0 km/h (2 Bft) 93,62 %
03.05.2018 00:30 13,4 C 12,8 C 11,7 C 66 % 0 lf 1010,4 hPa 0,0 l/m 0 min 0 min 0 W/m 11,3 km/h (2 Bft) 95,65 %
03.05.2018 00:32 13,3 C 12,8 C 11,7 C 66 % 0 lf 1010,4 hPa 0,0 l/m 0 min 0 min 0 W/m 6,8 km/h (2 Bft) 93,62 %
03.05.2018 00:34 13,3 C 12,8 C 11,7 C 66 % 0 lf 1010,4 hPa 0,0 l/m 0 min 0 min 0 W/m 9,0 km/h (2 Bft) 95,74 %
03.05.2018 00:36 13,3 C 12,8 C 11,7 C 66 % 0 lf 1010,4 hPa 0,0 l/m 0 min 0 min 0 W/m 9,0 km/h (2 Bft) 93,62 %
03.05.2018 00:38 13,3 C 12,8 C 11,7 C 66 % 0 lf 1010,6 hPa 0,0 l/m 0 min 0 min 0 W/m 9,0 km/h (2 Bft) 95,74 %
03.05.2018 00:40 13,3 C 12,8 C 11,7 C 66 % 0 lf 1010,5 hPa 0,0 l/m 0 min 0 min 0 W/m 11,3 km/h (2 Bft) 95,74 %
03.05.2018 00:42 13,3 C 12,8 C 11,7 C 66 % 0 lf 1010,5 hPa 0,0 l/m 0 min 0 min 0 W/m 9,0 km/h (2 Bft) 97,83 %
03.05.2018 00:44 13,3 C 12,8 C 11,7 C 66 % 0 lf 1010,6 hPa 0,0 l/m 0 min 0 min 0 W/m 9,0 km/h (2 Bft) 95,74 %
03.05.2018 00:46 13,3 C 12,8 C 11,7 C 66 % 0 lf 1010,6 hPa 0,0 l/m 0 min 0 min 0 W/m 6,8 km/h (2 Bft) 97,87 %
03.05.2018 00:48 13,3 C 12,8 C 11,7 C 66 % 0 lf 1010,6 hPa 0,0 l/m 0 min 0 min 0 W/m 9,0 km/h (2 Bft) 97,87 %
03.05.2018 00:50 13,3 C 12,8 C 11,7 C 66 % 0 lf 1010,6 hPa 0,0 l/m 0 min 0 min 0 W/m 6,8 km/h (2 Bft) 97,87 %
03.05.2018 00:52 13,3 C 12,8 C 11,7 C 66 % 0 lf 1010,6 hPa 0,0 l/m 0 min 0 min 0 W/m 13,5 km/h (3 Bft) 97,83 %
03.05.2018 00:54 13,3 C 12,8 C 11,7 C 66 % 0 lf 1010,6 hPa 0,0 l/m 0 min 0 min 0 W/m 6,8 km/h (2 Bft) 97,87 %
03.05.2018 00:56 13,3 C 12,8 C 11,7 C 66 % 0 lf 1010,7 hPa 0,0 l/m 0 min 0 min 0 W/m 9,0 km/h (2 Bft) 97,87 %
03.05.2018 00:58 13,3 C 12,8 C 11,7 C 66 % 0 lf 1010,7 hPa 0,0 l/m 0 min 0 min 0 W/m 13,5 km/h (3 Bft) 95,74 %
03.05.2018 01:00 13,3 C 12,8 C 11,7 C 66 % 0 lf 1010,7 hPa 0,0 l/m 0 min 0 min 0 W/m 11,3 km/h (2 Bft) 93,62 %
03.05.2018 01:02 13,3 C 12,8 C 11,7 C 66 % 0 lf 1010,7 hPa 0,0 l/m 0 min 0 min 0 W/m 11,3 km/h (2 Bft) 93,62 %
03.05.2018 01:04 13,3 C 12,8 C 11,7 C 66 % 0 lf 1010,7 hPa 0,0 l/m 0 min 0 min 0 W/m 9,0 km/h (2 Bft) 95,65 %
03.05.2018 01:06 13,3 C 12,8 C 11,7 C 66 % 0 lf 1010,7 hPa 0,0 l/m 0 min 0 min 0 W/m 9,0 km/h (2 Bft) 95,74 %
03.05.2018 01:08 13,3 C 12,8 C 11,7 C 67 % 0 lf 1010,8 hPa 0,0 l/m 0 min 0 min 0 W/m 11,3 km/h (2 Bft) 97,87 %
03.05.2018 01:10 13,3 C 12,8 C 11,7 C 67 % 0 lf 1010,8 hPa 0,0 l/m 0 min 0 min 0 W/m 13,5 km/h (3 Bft) 95,74 %
03.05.2018 01:12 13,2 C 12,8 C 11,7 C 67 % 0 lf 1010,8 hPa 0,0 l/m 0 min 0 min 0 W/m 6,8 km/h (2 Bft) 93,62 %
03.05.2018 01:14 13,2 C 12,8 C 11,7 C 68 % 0 lf 1010,8 hPa 0,0 l/m 0 min 0 min 0 W/m 9,0 km/h (2 Bft) 95,74 %
03.05.2018 01:16 13,2 C 12,2 C 11,1 C 68 % 0 lf 1010,8 hPa 0,0 l/m 0 min 0 min 0 W/m 9,0 km/h (2 Bft) 97,83 %
03.05.2018 01:18 13,2 C 12,2 C 11,1 C 68 % 0 lf 1010,8 hPa 0,0 l/m 0 min 0 min 0 W/m 6,8 km/h (2 Bft) 95,74 %
03.05.2018 01:20 13,2 C 12,2 C 11,1 C 68 % 0 lf 1010,9 hPa 0,0 l/m 0 min 0 min 0 W/m 13,5 km/h (3 Bft) 95,74 %
03.05.2018 01:22 13,2 C 12,2 C 11,1 C 68 % 0 lf 1010,8 hPa 0,0 l/m 0 min 0 min 0 W/m 11,3 km/h (2 Bft) 97,87 %
03.05.2018 01:24 13,2 C 12,2 C 11,1 C 69 % 0 lf 1010,9 hPa 0,0 l/m 0 min 0 min 0 W/m 11,3 km/h (2 Bft) 97,87 %
03.05.2018 01:26 13,1 C 12,2 C 11,1 C 69 % 0 lf 1010,8 hPa 0,0 l/m 0 min 0 min 0 W/m 22,5 km/h (4 Bft) 93,62 %
03.05.2018 01:28 13,1 C 12,2 C 11,1 C 69 % 0 lf 1010,9 hPa 0,0 l/m 0 min 0 min 0 W/m 18,0 km/h (3 Bft) 95,65 %
03.05.2018 01:30 13,1 C 12,2 C 11,1 C 69 % 0 lf 1010,9 hPa 0,0 l/m 0 min 0 min 0 W/m 6,8 km/h (2 Bft) 95,74 %
03.05.2018 01:32 13,1 C 12,2 C 11,1 C 70 % 0 lf 1010,9 hPa 0,0 l/m 0 min 0 min 0 W/m 15,8 km/h (3 Bft) 95,74 %
03.05.2018 01:34 13,0 C 12,2 C 11,1 C 70 % 0 lf 1010,9 hPa 0,0 l/m 0 min 0 min 0 W/m 15,8 km/h (3 Bft) 95,74 %
03.05.2018 01:36 13,0 C 12,2 C 11,7 C 70 % 0 lf 1011,1 hPa 0,0 l/m 0 min 0 min 0 W/m 18,0 km/h (3 Bft) 97,87 %
03.05.2018 01:38 13,0 C 12,2 C 11,7 C 70 % 0 lf 1011,0 hPa 0,0 l/m 0 min 0 min 0 W/m 18,0 km/h (3 Bft) 93,62 %
03.05.2018 01:40 13,0 C 12,2 C 11,1 C 71 % 0 lf 1011,0 hPa 0,0 l/m 0 min 0 min 0 W/m 18,0 km/h (3 Bft) 97,87 %
03.05.2018 01:42 13,0 C 12,2 C 11,1 C 71 % 0 lf 1011,0 hPa 0,0 l/m 0 min 0 min 0 W/m 13,5 km/h (3 Bft) 97,83 %
03.05.2018 01:44 13,0 C 12,2 C 11,1 C 71 % 0 lf 1011,0 hPa 0,0 l/m 0 min 0 min 0 W/m 24,8 km/h (4 Bft) 93,62 %
03.05.2018 01:46 13,0 C 12,2 C 11,1 C 72 % 0 lf 1011,0 hPa 0,0 l/m 0 min 0 min 0 W/m 13,5 km/h (3 Bft) 97,87 %
03.05.2018 01:48 12,9 C 12,2 C 11,1 C 72 % 0 lf 1011,0 hPa 0,0 l/m 0 min 0 min 0 W/m 15,8 km/h (3 Bft) 97,87 %
03.05.2018 01:50 12,9 C 12,2 C 11,1 C 72 % 0 lf 1011,0 hPa 0,0 l/m 0 min 0 min 0 W/m 13,5 km/h (3 Bft) 95,74 %
03.05.2018 01:52 12,9 C 12,2 C 11,1 C 72 % 0 lf 1011,0 hPa 0,0 l/m 0 min 0 min 0 W/m 18,0 km/h (3 Bft) 97,83 %
03.05.2018 01:54 12,9 C 12,2 C 11,1 C 73 % 0 lf 1011,0 hPa 0,0 l/m 0 min 0 min 0 W/m 31,5 km/h (5 Bft) 97,87 %
03.05.2018 01:56 12,9 C 12,2 C 11,1 C 74 % 0 lf 1011,0 hPa 0,0 l/m 0 min 0 min 0 W/m 24,8 km/h (4 Bft) 97,87 %
03.05.2018 01:58 12,9 C 12,2 C 11,1 C 75 % 0 lf 1011,0 hPa 0,0 l/m 0 min 0 min 0 W/m 18,0 km/h (3 Bft) 97,87 %
03.05.2018 02:00 12,8 C 12,2 C 11,1 C 75 % 0 lf 1011,0 hPa 0,0 l/m 0 min 0 min 0 W/m 22,5 km/h (4 Bft) 97,87 %
03.05.2018 02:02 12,8 C 12,2 C 11,1 C 77 % 0 lf 1011,0 hPa 0,0 l/m 0 min 0 min 0 W/m 18,0 km/h (3 Bft) 95,12 %
03.05.2018 02:04 12,8 C 11,7 C 11,1 C 77 % 0 lf 1011,0 hPa 0,0 l/m 0 min 0 min 0 W/m 13,5 km/h (3 Bft) 97,87 %
03.05.2018 02:08 12,7 C 11,7 C 11,1 C 78 % 0 lf 1011,0 hPa 0,0 l/m 0 min 0 min 0 W/m 22,5 km/h (4 Bft) 95,74 %
03.05.2018 02:10 12,7 C 11,7 C 10,6 C 79 % 0 lf 1011,0 hPa 0,0 l/m 0 min 0 min 0 W/m 13,5 km/h (3 Bft) 95,74 %
03.05.2018 02:12 12,6 C 11,7 C 10,6 C 79 % 0 lf 1011,0 hPa 0,0 l/m 0 min 0 min 0 W/m 15,8 km/h (3 Bft) 95,65 %
03.05.2018 02:14 12,6 C 11,7 C 10,6 C 79 % 0 lf 1011,0 hPa 0,0 l/m 0 min 0 min 0 W/m 15,8 km/h (3 Bft) 95,74 %
03.05.2018 02:16 12,6 C 11,7 C 10,6 C 80 % 0 lf 1010,9 hPa 0,0 l/m 0 min 0 min 0 W/m 18,0 km/h (3 Bft) 93,75 %
03.05.2018 02:18 12,5 C 11,7 C 10,6 C 80 % 0 lf 1011,0 hPa 0,0 l/m 0 min 0 min 0 W/m 18,0 km/h (3 Bft) 93,62 %
03.05.2018 02:20 12,4 C 11,7 C 10,6 C 80 % 0 lf 1010,9 hPa 0,0 l/m 0 min 0 min 0 W/m 20,3 km/h (4 Bft) 95,74 %
03.05.2018 02:22 12,4 C 11,7 C 10,6 C 80 % 0 lf 1010,9 hPa 0,0 l/m 0 min 0 min 0 W/m 18,0 km/h (3 Bft) 95,65 %
03.05.2018 02:24 12,4 C 11,7 C 10,6 C 81 % 0 lf 1010,9 hPa 0,0 l/m 0 min 0 min 0 W/m 9,0 km/h (2 Bft) 95,74 %
03.05.2018 02:26 12,3 C 11,7 C 10,6 C 81 % 0 lf 1010,9 hPa 0,0 l/m 0 min 0 min 0 W/m 15,8 km/h (3 Bft) 91,49 %
03.05.2018 02:28 12,3 C 11,7 C 10,6 C 81 % 0 lf 1010,9 hPa 0,0 l/m 0 min 0 min 0 W/m 11,3 km/h (2 Bft) 97,87 %
03.05.2018 02:30 12,2 C 11,7 C 10,6 C 81 % 0 lf 1010,9 hPa 0,0 l/m 0 min 0 min 0 W/m 15,8 km/h (3 Bft) 93,62 %
03.05.2018 02:32 12,2 C 11,7 C 10,6 C 81 % 0 lf 1010,8 hPa 0,0 l/m 0 min 0 min 0 W/m 15,8 km/h (3 Bft) 95,74 %
03.05.2018 02:34 12,2 C 11,7 C 10,6 C 82 % 0 lf 1010,9 hPa 0,0 l/m 0 min 0 min 0 W/m 22,5 km/h (4 Bft) 95,65 %
03.05.2018 02:36 12,2 C 11,7 C 10,6 C 82 % 0 lf 1010,9 hPa 0,0 l/m 0 min 0 min 0 W/m 20,3 km/h (4 Bft) 93,62 %
03.05.2018 02:38 12,1 C 11,7 C 10,6 C 82 % 0 lf 1010,9 hPa 0,0 l/m 0 min 0 min 0 W/m 13,5 km/h (3 Bft) 93,62 %
03.05.2018 02:40 12,1 C 11,7 C 10,6 C 82 % 0 lf 1010,9 hPa 0,0 l/m 0 min 0 min 0 W/m 15,8 km/h (3 Bft) 95,74 %
03.05.2018 02:42 12,1 C 11,7 C 10,6 C 82 % 0 lf 1010,9 hPa 0,0 l/m 0 min 0 min 0 W/m 15,8 km/h (3 Bft) 93,62 %
03.05.2018 02:44 12,1 C 11,7 C 10,6 C 82 % 0 lf 1011,0 hPa 0,0 l/m 0 min 0 min 0 W/m 18,0 km/h (3 Bft) 100,00 %
03.05.2018 02:46 12,0 C 11,7 C 10,6 C 82 % 0 lf 1011,0 hPa 0,0 l/m 0 min 0 min 0 W/m 13,5 km/h (3 Bft) 100,00 %
03.05.2018 02:48 12,0 C 11,7 C 10,6 C 82 % 0 lf 1011,0 hPa 0,0 l/m 0 min 0 min 0 W/m 13,5 km/h (3 Bft) 97,87 %
03.05.2018 02:50 12,0 C 11,7 C 10,6 C 82 % 0 lf 1011,0 hPa 0,0 l/m 0 min 0 min 0 W/m 15,8 km/h (3 Bft) 97,87 %
03.05.2018 02:52 12,0 C 11,1 C 10,6 C 82 % 0 lf 1011,0 hPa 0,0 l/m 0 min 0 min 0 W/m 15,8 km/h (3 Bft) 97,87 %
03.05.2018 02:54 11,9 C 11,1 C 10,6 C 82 % 0 lf 1011,0 hPa 0,0 l/m 0 min 0 min 0 W/m 9,0 km/h (2 Bft) 100,00 %
03.05.2018 02:56 11,9 C 11,1 C 10,6 C 83 % 0 lf 1011,0 hPa 0,0 l/m 0 min 0 min 0 W/m 13,5 km/h (3 Bft) 100,00 %
03.05.2018 02:58 11,9 C 11,1 C 10,6 C 83 % 0 lf 1011,0 hPa 0,0 l/m 0 min 0 min 0 W/m 18,0 km/h (3 Bft) 100,00 %
03.05.2018 03:00 11,9 C 11,1 C 10,6 C 83 % 0 lf 1011,0 hPa 0,0 l/m 0 min 0 min 0 W/m 15,8 km/h (3 Bft) 93,62 %
03.05.2018 03:02 11,9 C 11,1 C 10,6 C 83 % 0 lf 1011,0 hPa 0,0 l/m 0 min 0 min 0 W/m 13,5 km/h (3 Bft) 100,00 %
03.05.2018 03:04 11,9 C 11,1 C 10,6 C 83 % 0 lf 1011,0 hPa 0,0 l/m 0 min 0 min 0 W/m 20,3 km/h (4 Bft) 100,00 %
03.05.2018 03:06 11,9 C 11,1 C 10,6 C 83 % 0 lf 1011,1 hPa 0,0 l/m 0 min 0 min 0 W/m 15,8 km/h (3 Bft) 97,87 %
03.05.2018 03:08 11,9 C 11,1 C 10,6 C 83 % 0 lf 1011,1 hPa 0,0 l/m 0 min 0 min 0 W/m 15,8 km/h (3 Bft) 93,62 %
03.05.2018 03:10 11,9 C 11,1 C 10,0 C 83 % 0 lf 1011,1 hPa 0,0 l/m 0 min 0 min 0 W/m 9,0 km/h (2 Bft) 100,00 %
03.05.2018 03:12 11,9 C 11,1 C 10,0 C 83 % 0 lf 1011,1 hPa 0,0 l/m 0 min 0 min 0 W/m 9,0 km/h (2 Bft) 100,00 %
03.05.2018 03:14 11,8 C 11,1 C 10,0 C 83 % 0 lf 1011,1 hPa 0,0 l/m 0 min 0 min 0 W/m 20,3 km/h (4 Bft) 97,87 %
03.05.2018 03:16 11,8 C 11,1 C 10,0 C 83 % 0 lf 1011,1 hPa 0,0 l/m 0 min 0 min 0 W/m 18,0 km/h (3 Bft) 97,92 %
03.05.2018 03:18 11,8 C 11,1 C 10,0 C 83 % 0 lf 1011,1 hPa 0,0 l/m 0 min 0 min 0 W/m 13,5 km/h (3 Bft) 95,74 %
03.05.2018 03:20 11,8 C 11,1 C 10,0 C 83 % 0 lf 1011,2 hPa 0,0 l/m 0 min 0 min 0 W/m 11,3 km/h (2 Bft) 97,83 %
03.05.2018 03:22 11,8 C 11,1 C 10,0 C 84 % 0 lf 1011,2 hPa 0,0 l/m 0 min 0 min 0 W/m 20,3 km/h (4 Bft) 100,00 %
03.05.2018 03:24 11,8 C 11,1 C 10,0 C 84 % 0 lf 1011,2 hPa 0,0 l/m 0 min 0 min 0 W/m 18,0 km/h (3 Bft) 100,00 %
03.05.2018 03:26 11,7 C 11,1 C 10,0 C 84 % 0 lf 1011,2 hPa 0,0 l/m 0 min 0 min 0 W/m 13,5 km/h (3 Bft) 97,87 %
03.05.2018 03:28 11,7 C 11,1 C 10,0 C 84 % 0 lf 1011,2 hPa 0,0 l/m 0 min 0 min 0 W/m 20,3 km/h (4 Bft) 95,74 %
03.05.2018 03:30 11,7 C 10,6 C 10,0 C 84 % 0 lf 1011,1 hPa 0,0 l/m 0 min 0 min 0 W/m 13,5 km/h (3 Bft) 100,00 %
03.05.2018 03:32 11,7 C 10,6 C 10,0 C 84 % 0 lf 1011,2 hPa 0,0 l/m 0 min 0 min 0 W/m 13,5 km/h (3 Bft) 97,83 %
03.05.2018 03:34 11,7 C 10,6 C 10,0 C 84 % 0 lf 1011,2 hPa 0,0 l/m 0 min 0 min 0 W/m 15,8 km/h (3 Bft) 93,62 %
03.05.2018 03:36 11,6 C 10,6 C 10,0 C 84 % 0 lf 1011,2 hPa 0,0 l/m 0 min 0 min 0 W/m 18,0 km/h (3 Bft) 95,74 %
03.05.2018 03:38 11,6 C 10,6 C 10,0 C 84 % 0 lf 1011,2 hPa 0,0 l/m 0 min 0 min 0 W/m 6,8 km/h (2 Bft) 95,74 %
03.05.2018 03:40 11,6 C 10,6 C 10,0 C 84 % 0 lf 1011,3 hPa 0,0 l/m 0 min 0 min 0 W/m 20,3 km/h (4 Bft) 97,87 %
03.05.2018 03:42 11,6 C 10,6 C 10,0 C 84 % 0 lf 1011,3 hPa 0,0 l/m 0 min 0 min 0 W/m 15,8 km/h (3 Bft) 95,74 %
03.05.2018 03:44 11,6 C 10,6 C 9,4 C 85 % 0 lf 1011,3 hPa 0,0 l/m 0 min 0 min 0 W/m 13,5 km/h (3 Bft) 95,83 %
03.05.2018 03:46 11,6 C 10,6 C 9,4 C 85 % 0 lf 1011,3 hPa 0,0 l/m 0 min 0 min 0 W/m 13,5 km/h (3 Bft) 95,74 %
03.05.2018 03:48 11,5 C 10,6 C 9,4 C 85 % 0 lf 1011,4 hPa 0,0 l/m 0 min 0 min 0 W/m 22,5 km/h (4 Bft) 91,30 %
03.05.2018 03:50 11,5 C 10,6 C 9,4 C 85 % 0 lf 1011,4 hPa 0,0 l/m 0 min 0 min 0 W/m 18,0 km/h (3 Bft) 93,62 %
03.05.2018 03:52 11,5 C 10,6 C 9,4 C 85 % 0 lf 1011,4 hPa 0,0 l/m 0 min 0 min 0 W/m 13,5 km/h (3 Bft) 93,62 %
03.05.2018 03:54 11,4 C 10,6 C 9,4 C 85 % 0 lf 1011,5 hPa 0,0 l/m 0 min 0 min 0 W/m 22,5 km/h (4 Bft) 93,62 %
03.05.2018 03:56 11,4 C 10,6 C 9,4 C 85 % 0 lf 1011,5 hPa 0,0 l/m 0 min 0 min 0 W/m 22,5 km/h (4 Bft) 95,74 %
03.05.2018 03:58 11,4 C 10,6 C 9,4 C 85 % 0 lf 1011,5 hPa 0,0 l/m 0 min 0 min 0 W/m 15,8 km/h (3 Bft) 95,74 %
03.05.2018 04:00 11,4 C 10,6 C 9,4 C 85 % 0 lf 1011,5 hPa 0,0 l/m 0 min 0 min 0 W/m 18,0 km/h (3 Bft) 95,65 %
03.05.2018 04:02 11,4 C 10,6 C 9,4 C 85 % 0 lf 1011,5 hPa 0,0 l/m 0 min 0 min 0 W/m 18,0 km/h (3 Bft) 93,55 %
03.05.2018 04:04 11,3 C 10,6 C 9,4 C 86 % 0 lf 1011,5 hPa 0,0 l/m 0 min 0 min 0 W/m 22,5 km/h (4 Bft) 89,36 %
03.05.2018 04:06 11,3 C 10,6 C 9,4 C 86 % 0 lf 1011,5 hPa 0,0 l/m 0 min 0 min 0 W/m 13,5 km/h (3 Bft) 95,74 %
03.05.2018 04:08 11,3 C 10,6 C 9,4 C 86 % 0 lf 1011,6 hPa 0,0 l/m 0 min 0 min 0 W/m 13,5 km/h (3 Bft) 93,62 %
03.05.2018 04:10 11,3 C 10,6 C 9,4 C 86 % 0 lf 1011,7 hPa 0,0 l/m 0 min 0 min 0 W/m 11,3 km/h (2 Bft) 91,49 %
03.05.2018 04:12 11,3 C 10,6 C 9,4 C 86 % 0 lf 1011,7 hPa 0,0 l/m 0 min 0 min 0 W/m 20,3 km/h (4 Bft) 93,48 %
03.05.2018 04:14 11,2 C 10,6 C 9,4 C 86 % 0 lf 1011,7 hPa 0,0 l/m 0 min 0 min 0 W/m 20,3 km/h (4 Bft) 93,62 %
03.05.2018 04:16 11,2 C 10,6 C 9,4 C 86 % 0 lf 1011,8 hPa 0,0 l/m 0 min 0 min 0 W/m 18,0 km/h (3 Bft) 95,74 %
03.05.2018 04:18 11,2 C 10,6 C 9,4 C 86 % 0 lf 1011,9 hPa 0,0 l/m 0 min 0 min 0 W/m 22,5 km/h (4 Bft) 91,49 %
03.05.2018 04:20 11,2 C 10,6 C 9,4 C 86 % 0 lf 1012,0 hPa 0,0 l/m 0 min 0 min 0 W/m 20,3 km/h (4 Bft) 91,49 %
03.05.2018 04:22 11,2 C 10,6 C 9,4 C 86 % 0 lf 1011,9 hPa 0,0 l/m 0 min 0 min 0 W/m 18,0 km/h (3 Bft) 93,62 %
03.05.2018 04:24 11,1 C 10,6 C 9,4 C 87 % 0 lf 1011,9 hPa 0,0 l/m 0 min 0 min 0 W/m 15,8 km/h (3 Bft) 95,65 %
03.05.2018 04:26 11,1 C 10,0 C 8,9 C 87 % 0 lf 1011,9 hPa 0,0 l/m 0 min 0 min 0 W/m 20,3 km/h (4 Bft) 97,87 %
03.05.2018 04:28 11,1 C 10,0 C 8,9 C 87 % 0 lf 1012,0 hPa 0,0 l/m 0 min 0 min 0 W/m 15,8 km/h (3 Bft) 95,74 %
03.05.2018 04:30 11,1 C 10,0 C 8,9 C 87 % 0 lf 1012,0 hPa 0,0 l/m 0 min 0 min 0 W/m 13,5 km/h (3 Bft) 97,44 %
03.05.2018 04:32 11,0 C 10,0 C 8,9 C 87 % 0 lf 1012,0 hPa 0,0 l/m 0 min 0 min 0 W/m 11,3 km/h (2 Bft) 97,83 %
03.05.2018 04:34 10,9 C 10,0 C 8,9 C 87 % 0 lf 1012,1 hPa 0,0 l/m 0 min 0 min 0 W/m 18,0 km/h (3 Bft) 97,87 %
03.05.2018 04:36 10,9 C 10,0 C 8,9 C 87 % 0 lf 1012,1 hPa 0,0 l/m 0 min 0 min 0 W/m 13,5 km/h (3 Bft) 95,74 %
03.05.2018 04:38 10,9 C 10,0 C 8,9 C 87 % 0 lf 1012,1 hPa 0,0 l/m 0 min 0 min 0 W/m 13,5 km/h (3 Bft) 95,74 %
03.05.2018 04:40 10,8 C 10,0 C 8,9 C 87 % 0 lf 1012,2 hPa 0,0 l/m 0 min 0 min 0 W/m 18,0 km/h (3 Bft) 95,74 %
03.05.2018 04:42 10,8 C 10,0 C 8,3 C 87 % 0 lf 1012,2 hPa 0,0 l/m 0 min 0 min 0 W/m 13,5 km/h (3 Bft) 95,74 %
03.05.2018 04:44 10,7 C 9,4 C 8,3 C 87 % 0 lf 1012,3 hPa 0,0 l/m 0 min 0 min 0 W/m 15,8 km/h (3 Bft) 95,65 %
03.05.2018 04:46 10,7 C 9,4 C 8,3 C 86 % 0 lf 1012,4 hPa 0,0 l/m 0 min 0 min 0 W/m 15,8 km/h (3 Bft) 93,62 %
03.05.2018 04:48 10,7 C 9,4 C 8,3 C 86 % 0 lf 1012,4 hPa 0,0 l/m 0 min 0 min 0 W/m 9,0 km/h (2 Bft) 100,00 %
03.05.2018 04:50 10,6 C 9,4 C 8,3 C 86 % 0 lf 1012,5 hPa 0,0 l/m 0 min 0 min 0 W/m 9,0 km/h (2 Bft) 100,00 %
03.05.2018 04:52 10,6 C 9,4 C 8,3 C 86 % 0 lf 1012,5 hPa 0,0 l/m 0 min 0 min 0 W/m 11,3 km/h (2 Bft) 100,00 %
03.05.2018 04:54 10,5 C 9,4 C 8,3 C 86 % 0 lf 1012,5 hPa 0,0 l/m 0 min 0 min 0 W/m 9,0 km/h (2 Bft) 97,87 %
03.05.2018 04:56 10,5 C 9,4 C 8,3 C 86 % 0 lf 1012,6 hPa 0,0 l/m 0 min 0 min 0 W/m 6,8 km/h (2 Bft) 95,65 %
03.05.2018 04:58 10,4 C 9,4 C 7,8 C 86 % 0 lf 1012,6 hPa 0,0 l/m 0 min 0 min 0 W/m 6,8 km/h (2 Bft) 97,87 %
03.05.2018 05:00 10,4 C 9,4 C 7,8 C 86 % 0 lf 1012,6 hPa 0,0 l/m 0 min 0 min 0 W/m 6,8 km/h (2 Bft) 100,00 %
03.05.2018 05:02 10,4 C 8,9 C 7,8 C 86 % 0 lf 1012,6 hPa 0,0 l/m 0 min 0 min 0 W/m 13,5 km/h (3 Bft) 100,00 %
03.05.2018 05:04 10,3 C 8,9 C 7,8 C 86 % 0 lf 1012,6 hPa 0,0 l/m 0 min 0 min 0 W/m 15,8 km/h (3 Bft) 100,00 %
03.05.2018 05:06 10,3 C 8,9 C 7,8 C 86 % 0 lf 1012,6 hPa 0,0 l/m 0 min 0 min 0 W/m 13,5 km/h (3 Bft) 100,00 %
03.05.2018 05:08 10,2 C 8,9 C 7,8 C 86 % 0 lf 1012,6 hPa 0,0 l/m 0 min 0 min 0 W/m 15,8 km/h (3 Bft) 100,00 %
03.05.2018 05:10 10,2 C 8,9 C 7,8 C 86 % 0 lf 1012,6 hPa 0,0 l/m 0 min 0 min 0 W/m 13,5 km/h (3 Bft) 100,00 %
03.05.2018 05:12 10,1 C 8,9 C 7,8 C 85 % 0 lf 1012,6 hPa 0,0 l/m 0 min 0 min 0 W/m 13,5 km/h (3 Bft) 97,87 %
03.05.2018 05:14 10,1 C 8,9 C 7,8 C 85 % 0 lf 1012,7 hPa 0,0 l/m 0 min 0 min 0 W/m 15,8 km/h (3 Bft) 97,87 %
03.05.2018 05:16 10,1 C 8,9 C 7,8 C 85 % 0 lf 1012,8 hPa 0,0 l/m 0 min 0 min 0 W/m 11,3 km/h (2 Bft) 97,87 %
03.05.2018 05:18 10,0 C 8,9 C 7,2 C 85 % 0 lf 1012,8 hPa 0,0 l/m 0 min 0 min 0 W/m 13,5 km/h (3 Bft) 95,74 %
03.05.2018 05:20 9,9 C 8,3 C 7,2 C 85 % 0 lf 1012,8 hPa 0,0 l/m 0 min 0 min 0 W/m 11,3 km/h (2 Bft) 97,83 %
03.05.2018 05:22 9,9 C 8,3 C 7,2 C 85 % 0 lf 1012,8 hPa 0,0 l/m 0 min 0 min 0 W/m 9,0 km/h (2 Bft) 95,74 %
03.05.2018 05:24 9,9 C 8,3 C 7,2 C 85 % 0 lf 1012,8 hPa 0,0 l/m 0 min 0 min 0 W/m 13,5 km/h (3 Bft) 95,74 %
03.05.2018 05:26 9,8 C 8,3 C 7,2 C 85 % 0 lf 1012,8 hPa 0,0 l/m 0 min 0 min 0 W/m 11,3 km/h (2 Bft) 95,74 %
03.05.2018 05:28 9,8 C 8,3 C 7,2 C 85 % 0 lf 1012,8 hPa 0,0 l/m 0 min 0 min 0 W/m 13,5 km/h (3 Bft) 97,87 %
03.05.2018 05:30 9,8 C 8,3 C 7,2 C 85 % 0 lf 1012,9 hPa 0,0 l/m 0 min 0 min 0 W/m 11,3 km/h (2 Bft) 97,87 %
03.05.2018 05:32 9,7 C 8,3 C 7,2 C 85 % 0 lf 1013,0 hPa 0,0 l/m 0 min 0 min 0 W/m 9,0 km/h (2 Bft) 97,83 %
03.05.2018 05:34 9,7 C 8,3 C 6,7 C 85 % 0 lf 1013,0 hPa 0,0 l/m 0 min 0 min 0 W/m 6,8 km/h (2 Bft) 97,87 %
03.05.2018 05:35 9,7 C 8,3 C 6,7 C 85 % 0 lf 1013,0 hPa 0,0 l/m 0 min 0 min 0 W/m 9,0 km/h (2 Bft) 99,12 %
03.05.2018 05:40 9,6 C 8,3 C 6,7 C 85 % 0 lf 1013,1 hPa 0,0 l/m 0 min 0 min 0 W/m 9,0 km/h (2 Bft) 87,50 %
03.05.2018 05:42 9,6 C 8,3 C 6,7 C 85 % 0 lf 1013,0 hPa 0,0 l/m 0 min 0 min 0 W/m 4,5 km/h (1 Bft) 98,00 %
03.05.2018 05:44 9,6 C 7,8 C 6,7 C 84 % 0 lf 1013,1 hPa 0,0 l/m 0 min 0 min 0 W/m 4,5 km/h (1 Bft) 95,74 %
03.05.2018 05:46 9,5 C 7,8 C 6,1 C 85 % 0 lf 1013,0 hPa 0,0 l/m 0 min 0 min 0 W/m 9,0 km/h (2 Bft) 91,49 %
03.05.2018 05:48 9,4 C 7,8 C 6,1 C 84 % 0 lf 1013,1 hPa 0,0 l/m 0 min 0 min 0 W/m 6,8 km/h (2 Bft) 97,87 %
03.05.2018 05:50 9,4 C 7,8 C 6,1 C 84 % 0 lf 1013,1 hPa 0,0 l/m 0 min 0 min 0 W/m 6,8 km/h (2 Bft) 95,65 %
03.05.2018 05:52 9,4 C 7,8 C 6,1 C 84 % 0 lf 1013,1 hPa 0,0 l/m 0 min 0 min 0 W/m 9,0 km/h (2 Bft) 97,87 %
03.05.2018 05:54 9,3 C 7,8 C 6,1 C 84 % 0 lf 1013,2 hPa 0,0 l/m 0 min 0 min 0 W/m 4,5 km/h (1 Bft) 98,00 %
03.05.2018 05:56 9,3 C 7,8 C 6,1 C 84 % 0 lf 1013,2 hPa 0,0 l/m 0 min 0 min 0 W/m 2,3 km/h (1 Bft) 95,65 %
03.05.2018 05:58 9,2 C 7,2 C 6,1 C 84 % 0 lf 1013,3 hPa 0,0 l/m 0 min 0 min 0 W/m 4,5 km/h (1 Bft) 95,74 %
03.05.2018 06:00 9,2 C 7,2 C 6,1 C 84 % 0 lf 1013,3 hPa 0,0 l/m 0 min 0 min 0 W/m 0,0 km/h (0 Bft) 95,74 %
03.05.2018 06:02 9,2 C 7,2 C 6,1 C 84 % 0 lf 1013,3 hPa 0,0 l/m 0 min 0 min 0 W/m 0,0 km/h (0 Bft) 93,62 %
03.05.2018 06:04 9,1 C 7,2 C 6,1 C 84 % 0 lf 1013,4 hPa 0,0 l/m 0 min 0 min 0 W/m 0,0 km/h (0 Bft) 95,74 %
03.05.2018 06:08 9,1 C 7,2 C 6,1 C 84 % 0 lf 1013,4 hPa 0,0 l/m 0 min 0 min 3 W/m 6,8 km/h (2 Bft) 97,85 %
03.05.2018 06:10 9,0 C 7,2 C 6,1 C 84 % 0 lf 1013,5 hPa 0,0 l/m 0 min 0 min 5 W/m 9,0 km/h (2 Bft) 100,00 %
03.05.2018 06:12 8,9 C 7,2 C 5,6 C 84 % 0 lf 1013,6 hPa 0,0 l/m 0 min 0 min 5 W/m 6,8 km/h (2 Bft) 97,87 %
03.05.2018 06:14 8,9 C 7,2 C 5,6 C 84 % 0 lf 1013,6 hPa 0,0 l/m 0 min 0 min 6 W/m 9,0 km/h (2 Bft) 95,74 %
03.05.2018 06:16 8,9 C 7,2 C 5,6 C 84 % 0 lf 1013,7 hPa 0,0 l/m 0 min 0 min 7 W/m 4,5 km/h (1 Bft) 97,92 %
03.05.2018 06:18 8,8 C 7,2 C 5,6 C 84 % 0 lf 1013,6 hPa 0,0 l/m 0 min 0 min 7 W/m 4,5 km/h (1 Bft) 97,83 %
03.05.2018 06:20 8,8 C 7,2 C 5,6 C 84 % 0 lf 1013,7 hPa 0,0 l/m 0 min 0 min 8 W/m 2,3 km/h (1 Bft) 95,74 %
03.05.2018 06:22 8,7 C 7,2 C 5,6 C 84 % 0 lf 1013,7 hPa 0,0 l/m 0 min 0 min 9 W/m 4,5 km/h (1 Bft) 93,62 %
03.05.2018 06:24 8,7 C 7,2 C 5,6 C 84 % 0 lf 1013,7 hPa 0,0 l/m 0 min 0 min 11 W/m 0,0 km/h (0 Bft) 89,36 %
03.05.2018 06:26 8,7 C 7,2 C 5,6 C 84 % 0 lf 1013,8 hPa 0,0 l/m 0 min 0 min 12 W/m 2,3 km/h (1 Bft) 95,74 %
03.05.2018 06:28 8,7 C 7,2 C 5,6 C 84 % 0 lf 1013,9 hPa 0,0 l/m 0 min 0 min 13 W/m 2,3 km/h (1 Bft) 95,74 %
03.05.2018 06:30 8,6 C 7,2 C 5,6 C 84 % 0 lf 1013,8 hPa 0,0 l/m 0 min 0 min 15 W/m 2,3 km/h (1 Bft) 95,65 %
03.05.2018 06:32 8,6 C 7,2 C 5,6 C 84 % 0 lf 1013,8 hPa 0,0 l/m 0 min 0 min 17 W/m 4,5 km/h (1 Bft) 95,74 %
03.05.2018 06:34 8,6 C 7,2 C 5,6 C 84 % 0 lf 1013,9 hPa 0,0 l/m 0 min 0 min 19 W/m 9,0 km/h (2 Bft) 93,62 %
03.05.2018 06:36 8,5 C 7,2 C 5,6 C 85 % 0 lf 1013,8 hPa 0,0 l/m 0 min 0 min 20 W/m 6,8 km/h (2 Bft) 91,49 %
03.05.2018 06:38 8,5 C 7,2 C 5,6 C 85 % 0 lf 1013,9 hPa 0,0 l/m 0 min 0 min 23 W/m 2,3 km/h (1 Bft) 90,91 %
03.05.2018 06:40 8,4 C 7,2 C 5,6 C 85 % 0 lf 1013,9 hPa 0,0 l/m 0 min 0 min 26 W/m 6,8 km/h (2 Bft) 91,49 %
03.05.2018 06:42 8,4 C 7,2 C 6,1 C 85 % 0 lf 1014,0 hPa 0,0 l/m 0 min 0 min 27 W/m 4,5 km/h (1 Bft) 93,62 %
03.05.2018 06:44 8,4 C 7,2 C 6,1 C 85 % 0 lf 1013,9 hPa 0,0 l/m 0 min 0 min 30 W/m 4,5 km/h (1 Bft) 91,49 %
03.05.2018 06:46 8,4 C 7,2 C 6,1 C 85 % 0 lf 1013,9 hPa 0,0 l/m 0 min 0 min 33 W/m 6,8 km/h (2 Bft) 91,49 %
03.05.2018 06:48 8,3 C 7,2 C 6,1 C 85 % 0 lf 1014,0 hPa 0,0 l/m 0 min 0 min 34 W/m 2,3 km/h (1 Bft) 89,13 %
03.05.2018 06:50 8,3 C 7,2 C 6,1 C 85 % 0 lf 1014,0 hPa 0,0 l/m 0 min 0 min 38 W/m 4,5 km/h (1 Bft) 95,74 %
03.05.2018 06:52 8,3 C 7,8 C 6,1 C 85 % 0 lf 1013,9 hPa 0,0 l/m 0 min 0 min 40 W/m 2,3 km/h (1 Bft) 91,49 %
03.05.2018 06:54 8,3 C 7,8 C 6,1 C 85 % 0 lf 1014,0 hPa 0,0 l/m 0 min 0 min 43 W/m 2,3 km/h (1 Bft) 95,92 %
03.05.2018 06:56 8,2 C 7,8 C 6,1 C 85 % 0 lf 1014,0 hPa 0,0 l/m 0 min 0 min 46 W/m 4,5 km/h (1 Bft) 95,74 %
03.05.2018 06:58 8,2 C 7,8 C 6,7 C 86 % 0 lf 1014,0 hPa 0,0 l/m 0 min 0 min 49 W/m 6,8 km/h (2 Bft) 93,62 %
03.05.2018 07:00 8,2 C 7,8 C 6,7 C 86 % 0 lf 1014,2 hPa 0,0 l/m 0 min 0 min 52 W/m 6,8 km/h (2 Bft) 93,62 %
03.05.2018 07:02 8,2 C 7,8 C 6,7 C 86 % 0 lf 1014,1 hPa 0,0 l/m 0 min 0 min 54 W/m 6,8 km/h (2 Bft) 95,74 %
03.05.2018 07:04 8,2 C 7,8 C 6,7 C 86 % 0 lf 1014,3 hPa 0,0 l/m 0 min 0 min 58 W/m 2,3 km/h (1 Bft) 95,74 %
03.05.2018 07:06 8,2 C 7,8 C 6,7 C 86 % 0 lf 1014,3 hPa 0,0 l/m 0 min 0 min 61 W/m 9,0 km/h (2 Bft) 97,83 %
03.05.2018 07:08 8,2 C 8,3 C 6,7 C 86 % 0 lf 1014,3 hPa 0,0 l/m 0 min 0 min 64 W/m 4,5 km/h (1 Bft) 95,74 %
03.05.2018 07:10 8,2 C 8,3 C 7,2 C 87 % 0 lf 1014,4 hPa 0,0 l/m 0 min 0 min 67 W/m 6,8 km/h (2 Bft) 97,87 %
03.05.2018 07:12 8,2 C 8,3 C 7,2 C 87 % 0 lf 1014,4 hPa 0,0 l/m 0 min 0 min 70 W/m 6,8 km/h (2 Bft) 95,74 %
03.05.2018 07:14 8,2 C 8,3 C 7,2 C 87 % 0 lf 1014,5 hPa 0,0 l/m 0 min 0 min 75 W/m 6,8 km/h (2 Bft) 95,74 %
03.05.2018 07:16 8,2 C 8,3 C 7,2 C 87 % 0 lf 1014,5 hPa 0,0 l/m 0 min 0 min 79 W/m 6,8 km/h (2 Bft) 97,87 %
03.05.2018 07:18 8,2 C 8,3 C 7,2 C 88 % 0 lf 1014,6 hPa 0,0 l/m 0 min 0 min 83 W/m 6,8 km/h (2 Bft) 97,22 %
03.05.2018 07:20 8,2 C 8,9 C 7,2 C 88 % 0 lf 1014,6 hPa 0,0 l/m 0 min 0 min 85 W/m 4,5 km/h (1 Bft) 98,25 %
03.05.2018 07:22 8,2 C 8,9 C 7,8 C 88 % 0 lf 1014,6 hPa 0,0 l/m 0 min 0 min 91 W/m 4,5 km/h (1 Bft) 97,83 %
03.05.2018 07:24 8,2 C 8,9 C 7,8 C 88 % 0 lf 1014,6 hPa 0,0 l/m 2 min 0 min 94 W/m 6,8 km/h (2 Bft) 97,96 %
03.05.2018 07:26 8,2 C 8,9 C 7,8 C 88 % 0 lf 1014,6 hPa 0,0 l/m 2 min 0 min 98 W/m 6,8 km/h (2 Bft) 97,87 %
03.05.2018 07:28 8,2 C 9,4 C 7,8 C 88 % 0 lf 1014,6 hPa 0,0 l/m 2 min 0 min 104 W/m 4,5 km/h (1 Bft) 95,74 %
03.05.2018 07:30 8,2 C 9,4 C 7,8 C 88 % 0 lf 1014,6 hPa 0,0 l/m 2 min 0 min 105 W/m 2,3 km/h (1 Bft) 95,65 %
03.05.2018 07:32 8,3 C 9,4 C 7,8 C 88 % 0 lf 1014,6 hPa 0,0 l/m 2 min 0 min 111 W/m 6,8 km/h (2 Bft) 97,92 %
03.05.2018 07:34 8,3 C 9,4 C 7,8 C 88 % 0 lf 1014,6 hPa 0,0 l/m 2 min 0 min 115 W/m 6,8 km/h (2 Bft) 97,87 %
03.05.2018 07:36 8,3 C 9,4 C 7,8 C 89 % 0 lf 1014,7 hPa 0,0 l/m 2 min 0 min 124 W/m 6,8 km/h (2 Bft) 100,00 %
03.05.2018 07:38 8,4 C 10,0 C 8,3 C 89 % 0 lf 1014,7 hPa 0,0 l/m 2 min 0 min 128 W/m 9,0 km/h (2 Bft) 100,00 %
03.05.2018 07:40 8,4 C 10,0 C 8,3 C 89 % 0 lf 1014,7 hPa 0,0 l/m 2 min 0 min 132 W/m 4,5 km/h (1 Bft) 97,83 %
03.05.2018 07:42 8,4 C 10,0 C 8,3 C 89 % 0 lf 1014,7 hPa 0,0 l/m 2 min 0 min 157 W/m 6,8 km/h (2 Bft) 100,00 %
03.05.2018 07:44 8,4 C 10,0 C 8,3 C 89 % 0 lf 1014,7 hPa 0,0 l/m 2 min 0 min 147 W/m 9,0 km/h (2 Bft) 100,00 %
03.05.2018 07:46 8,5 C 10,6 C 8,3 C 89 % 0 lf 1014,7 hPa 0,0 l/m 2 min 0 min 164 W/m 4,5 km/h (1 Bft) 97,87 %
03.05.2018 07:48 8,6 C 10,6 C 8,9 C 89 % 0 lf 1014,8 hPa 0,0 l/m 2 min 0 min 180 W/m 9,0 km/h (2 Bft) 100,00 %
03.05.2018 07:50 8,6 C 10,6 C 8,9 C 89 % 0 lf 1014,8 hPa 0,0 l/m 2 min 0 min 169 W/m 9,0 km/h (2 Bft) 100,00 %
03.05.2018 07:52 8,6 C 10,6 C 8,9 C 90 % 0 lf 1014,9 hPa 0,0 l/m 2 min 0 min 167 W/m 6,8 km/h (2 Bft) 95,65 %
03.05.2018 07:54 8,7 C 10,6 C 8,9 C 90 % 0 lf 1014,9 hPa 0,0 l/m 2 min 0 min 158 W/m 9,0 km/h (2 Bft) 100,00 %
03.05.2018 07:56 8,7 C 10,6 C 8,9 C 90 % 0 lf 1014,9 hPa 0,0 l/m 2 min 0 min 179 W/m 11,3 km/h (2 Bft) 97,83 %
03.05.2018 07:58 8,8 C 10,6 C 8,9 C 90 % 0 lf 1015,0 hPa 0,0 l/m 2 min 0 min 250 W/m 9,0 km/h (2 Bft) 100,00 %
03.05.2018 08:00 8,8 C 11,1 C 8,9 C 89 % 0 lf 1015,0 hPa 0,0 l/m 2 min 0 min 194 W/m 9,0 km/h (2 Bft) 100,00 %
03.05.2018 08:02 8,8 C 11,1 C 9,4 C 89 % 0 lf 1015,0 hPa 0,0 l/m 2 min 0 min 189 W/m 11,3 km/h (2 Bft) 100,00 %
03.05.2018 08:04 8,9 C 11,1 C 9,4 C 89 % 0 lf 1015,1 hPa 0,0 l/m 2 min 0 min 183 W/m 6,8 km/h (2 Bft) 97,87 %
03.05.2018 08:06 8,9 C 11,1 C 9,4 C 89 % 0 lf 1015,1 hPa 0,0 l/m 2 min 0 min 222 W/m 6,8 km/h (2 Bft) 97,83 %
03.05.2018 08:08 9,0 C 11,7 C 9,4 C 90 % 0 lf 1015,1 hPa 0,0 l/m 2 min 0 min 254 W/m 11,3 km/h (2 Bft) 100,00 %
03.05.2018 08:10 9,1 C 11,7 C 9,4 C 89 % 0 lf 1015,0 hPa 0,0 l/m 2 min 0 min 246 W/m 11,3 km/h (2 Bft) 97,87 %
03.05.2018 08:12 9,1 C 11,7 C 9,4 C 89 % 0 lf 1015,1 hPa 0,0 l/m 2 min 0 min 246 W/m 15,8 km/h (3 Bft) 100,00 %
03.05.2018 08:14 9,1 C 11,1 C 9,4 C 89 % 0 lf 1015,2 hPa 0,0 l/m 2 min 0 min 197 W/m 11,3 km/h (2 Bft) 100,00 %
03.05.2018 08:16 9,2 C 11,7 C 9,4 C 89 % 0 lf 1015,3 hPa 0,0 l/m 2 min 0 min 199 W/m 11,3 km/h (2 Bft) 100,00 %
03.05.2018 08:18 9,2 C 11,7 C 9,4 C 89 % 0 lf 1015,3 hPa 0,0 l/m 2 min 0 min 282 W/m 11,3 km/h (2 Bft) 97,83 %
03.05.2018 08:20 9,3 C 11,7 C 9,4 C 89 % 0 lf 1015,3 hPa 0,0 l/m 2 min 0 min 242 W/m 13,5 km/h (3 Bft) 98,31 %
03.05.2018 08:22 9,3 C 11,7 C 9,4 C 88 % 0 lf 1015,3 hPa 0,0 l/m 2 min 0 min 210 W/m 6,8 km/h (2 Bft) 97,14 %
03.05.2018 08:24 9,4 C 11,7 C 9,4 C 88 % 0 lf 1015,4 hPa 0,0 l/m 2 min 0 min 213 W/m 11,3 km/h (2 Bft) 97,87 %
03.05.2018 08:26 9,4 C 11,7 C 9,4 C 88 % 0 lf 1015,3 hPa 0,0 l/m 2 min 0 min 207 W/m 11,3 km/h (2 Bft) 93,62 %
03.05.2018 08:28 9,4 C 11,7 C 9,4 C 88 % 0 lf 1015,4 hPa 0,0 l/m 2 min 0 min 267 W/m 13,5 km/h (3 Bft) 97,87 %
03.05.2018 08:30 9,4 C 11,7 C 9,4 C 88 % 0 lf 1015,4 hPa 0,0 l/m 2 min 0 min 274 W/m 15,8 km/h (3 Bft) 95,65 %
03.05.2018 08:32 9,5 C 12,2 C 9,4 C 87 % 0 lf 1015,4 hPa 0,0 l/m 2 min 0 min 254 W/m 11,3 km/h (2 Bft) 93,62 %
03.05.2018 08:34 9,5 C 12,8 C 9,4 C 87 % 0 lf 1015,5 hPa 0,0 l/m 2 min 0 min 261 W/m 9,0 km/h (2 Bft) 95,74 %
03.05.2018 08:36 9,6 C 12,8 C 9,4 C 87 % 0 lf 1015,5 hPa 0,0 l/m 2 min 0 min 245 W/m 15,8 km/h (3 Bft) 91,49 %
03.05.2018 08:38 9,6 C 15,0 C 10,0 C 86 % 0 lf 1015,6 hPa 0,0 l/m 2 min 0 min 350 W/m 15,8 km/h (3 Bft) 91,49 %
03.05.2018 08:40 9,6 C 15,6 C 10,0 C 86 % 0 lf 1015,6 hPa 0,0 l/m 2 min 0 min 312 W/m 13,5 km/h (3 Bft) 95,74 %
03.05.2018 08:42 9,7 C 15,6 C 10,0 C 86 % 0 lf 1015,6 hPa 0,0 l/m 2 min 0 min 296 W/m 18,0 km/h (3 Bft) 93,48 %
03.05.2018 08:44 9,7 C 15,6 C 10,0 C 86 % 0 lf 1015,6 hPa 0,0 l/m 2 min 0 min 255 W/m 11,3 km/h (2 Bft) 97,87 %
03.05.2018 08:46 9,8 C 16,1 C 10,0 C 85 % 0 lf 1015,7 hPa 0,0 l/m 2 min 0 min 398 W/m 11,3 km/h (2 Bft) 95,83 %
03.05.2018 08:48 9,8 C 15,6 C 10,0 C 85 % 0 lf 1015,6 hPa 0,0 l/m 2 min 0 min 269 W/m 15,8 km/h (3 Bft) 93,62 %
03.05.2018 08:50 9,8 C 16,1 C 10,0 C 85 % 0 lf 1015,7 hPa 0,0 l/m 2 min 0 min 294 W/m 11,3 km/h (2 Bft) 89,66 %
03.05.2018 08:52 9,9 C 16,7 C 10,0 C 85 % 0 lf 1015,7 hPa 0,0 l/m 2 min 0 min 309 W/m 9,0 km/h (2 Bft) 94,44 %
03.05.2018 08:54 9,9 C 16,1 C 10,0 C 84 % 0 lf 1015,6 hPa 0,0 l/m 2 min 0 min 291 W/m 11,3 km/h (2 Bft) 91,30 %
03.05.2018 08:56 10,0 C 16,7 C 10,0 C 85 % 0 lf 1015,6 hPa 0,0 l/m 2 min 0 min 308 W/m 15,8 km/h (3 Bft) 93,62 %
03.05.2018 08:58 10,1 C 16,7 C 10,0 C 84 % 0 lf 1015,6 hPa 0,0 l/m 2 min 0 min 303 W/m 11,3 km/h (2 Bft) 93,62 %
03.05.2018 09:00 10,1 C 17,2 C 10,6 C 84 % 0 lf 1015,7 hPa 0,0 l/m 2 min 0 min 368 W/m 13,5 km/h (3 Bft) 91,49 %
03.05.2018 09:02 10,2 C 17,8 C 10,0 C 84 % 0 lf 1015,7 hPa 0,0 l/m 2 min 0 min 398 W/m 20,3 km/h (4 Bft) 89,36 %
03.05.2018 09:04 10,2 C 18,3 C 10,6 C 84 % 0 lf 1015,7 hPa 0,0 l/m 2 min 0 min 350 W/m 11,3 km/h (2 Bft) 91,30 %
03.05.2018 09:06 10,3 C 18,9 C 10,6 C 84 % 0 lf 1015,7 hPa 0,0 l/m 2 min 0 min 358 W/m 13,5 km/h (3 Bft) 93,62 %
03.05.2018 09:08 10,4 C 20,0 C 10,6 C 84 % 0 lf 1015,7 hPa 0,0 l/m 2 min 0 min 440 W/m 9,0 km/h (2 Bft) 93,62 %
03.05.2018 09:10 10,4 C 20,0 C 10,6 C 84 % 0 lf 1015,7 hPa 0,0 l/m 2 min 0 min 397 W/m 15,8 km/h (3 Bft) 95,74 %
03.05.2018 09:12 10,5 C 18,9 C 10,6 C 83 % 0 lf 1015,8 hPa 0,0 l/m 2 min 0 min 330 W/m 11,3 km/h (2 Bft) 97,87 %
03.05.2018 09:14 10,6 C 17,8 C 10,6 C 83 % 0 lf 1015,8 hPa 0,0 l/m 2 min 0 min 303 W/m 13,5 km/h (3 Bft) 97,87 %
03.05.2018 09:16 10,7 C 17,2 C 10,6 C 82 % 0 lf 1015,9 hPa 0,0 l/m 2 min 0 min 245 W/m 13,5 km/h (3 Bft) 97,83 %
03.05.2018 09:18 10,7 C 17,2 C 10,6 C 82 % 0 lf 1015,8 hPa 0,0 l/m 2 min 0 min 284 W/m 9,0 km/h (2 Bft) 97,87 %
03.05.2018 09:20 10,8 C 18,3 C 10,6 C 82 % 0 lf 1015,9 hPa 0,0 l/m 2 min 0 min 345 W/m 6,8 km/h (2 Bft) 91,53 %
03.05.2018 09:22 10,8 C 18,9 C 10,6 C 82 % 0 lf 1015,9 hPa 0,0 l/m 2 min 0 min 345 W/m 9,0 km/h (2 Bft) 94,29 %
03.05.2018 09:24 10,9 C 18,9 C 10,6 C 82 % 0 lf 1015,9 hPa 0,0 l/m 2 min 0 min 356 W/m 9,0 km/h (2 Bft) 97,87 %
03.05.2018 09:26 11,0 C 19,4 C 11,1 C 82 % 0 lf 1015,9 hPa 0,0 l/m 2 min 0 min 359 W/m 11,3 km/h (2 Bft) 97,87 %
03.05.2018 09:28 11,1 C 19,4 C 11,1 C 81 % 0 lf 1015,9 hPa 0,0 l/m 2 min 0 min 372 W/m 15,8 km/h (3 Bft) 97,83 %
03.05.2018 09:30 11,2 C 18,9 C 11,1 C 81 % 0 lf 1015,9 hPa 0,0 l/m 2 min 0 min 312 W/m 15,8 km/h (3 Bft) 100,00 %
03.05.2018 09:32 11,3 C 18,3 C 11,1 C 80 % 0 lf 1016,1 hPa 0,0 l/m 2 min 0 min 319 W/m 15,8 km/h (3 Bft) 100,00 %
03.05.2018 09:34 11,3 C 18,3 C 11,1 C 79 % 0 lf 1016,1 hPa 0,0 l/m 2 min 0 min 382 W/m 15,8 km/h (3 Bft) 97,87 %
03.05.2018 09:36 11,3 C 19,4 C 11,1 C 78 % 0 lf 1016,1 hPa 0,0 l/m 2 min 0 min 491 W/m 13,5 km/h (3 Bft) 100,00 %
03.05.2018 09:38 11,3 C 21,1 C 11,1 C 78 % 0 lf 1016,1 hPa 0,0 l/m 2 min 0 min 557 W/m 9,0 km/h (2 Bft) 95,74 %
03.05.2018 09:40 11,4 C 21,1 C 11,1 C 78 % 0 lf 1016,1 hPa 0,0 l/m 2 min 0 min 528 W/m 9,0 km/h (2 Bft) 100,00 %
03.05.2018 09:42 11,4 C 21,1 C 11,1 C 78 % 0 lf 1016,2 hPa 0,0 l/m 2 min 0 min 535 W/m 18,0 km/h (3 Bft) 97,87 %
03.05.2018 09:44 11,4 C 21,1 C 11,7 C 77 % 0 lf 1016,2 hPa 0,0 l/m 2 min 0 min 466 W/m 18,0 km/h (3 Bft) 97,87 %
03.05.2018 09:46 11,5 C 21,1 C 12,2 C 77 % 0 lf 1016,3 hPa 0,0 l/m 2 min 0 min 513 W/m 18,0 km/h (3 Bft) 97,92 %
03.05.2018 09:48 11,5 C 21,1 C 13,3 C 76 % 0 lf 1016,3 hPa 0,0 l/m 2 min 0 min 481 W/m 15,8 km/h (3 Bft) 100,00 %
03.05.2018 09:50 11,5 C 21,1 C 13,9 C 76 % 0 lf 1016,2 hPa 0,0 l/m 2 min 0 min 417 W/m 9,0 km/h (2 Bft) 100,00 %
03.05.2018 09:52 11,6 C 21,7 C 15,0 C 76 % 0 lf 1016,3 hPa 0,0 l/m 2 min 0 min 475 W/m 15,8 km/h (3 Bft) 100,00 %
03.05.2018 09:54 11,6 C 22,2 C 15,6 C 77 % 0 lf 1016,3 hPa 0,0 l/m 2 min 0 min 565 W/m 18,0 km/h (3 Bft) 100,00 %
03.05.2018 09:56 11,7 C 21,7 C 15,6 C 76 % 0 lf 1016,4 hPa 0,0 l/m 2 min 0 min 547 W/m 15,8 km/h (3 Bft) 100,00 %
03.05.2018 09:58 11,7 C 21,7 C 16,7 C 76 % 0 lf 1016,3 hPa 0,0 l/m 2 min 0 min 545 W/m 13,5 km/h (3 Bft) 97,87 %
03.05.2018 10:00 11,7 C 22,2 C 16,7 C 76 % 0 lf 1016,3 hPa 0,0 l/m 2 min 0 min 551 W/m 13,5 km/h (3 Bft) 95,74 %
03.05.2018 10:02 11,8 C 23,3 C 17,8 C 77 % 0 lf 1016,3 hPa 0,0 l/m 2 min 0 min 597 W/m 15,8 km/h (3 Bft) 93,48 %
03.05.2018 10:04 11,9 C 23,3 C 17,8 C 76 % 0 lf 1016,4 hPa 0,0 l/m 2 min 0 min 555 W/m 15,8 km/h (3 Bft) 95,74 %
03.05.2018 10:06 12,1 C 23,3 C 17,8 C 76 % 0 lf 1016,4 hPa 0,0 l/m 2 min 0 min 599 W/m 13,5 km/h (3 Bft) 97,87 %
03.05.2018 10:08 12,1 C 23,3 C 17,8 C 75 % 0 lf 1016,4 hPa 0,0 l/m 2 min 0 min 632 W/m 15,8 km/h (3 Bft) 95,74 %
03.05.2018 10:10 12,2 C 23,9 C 17,2 C 75 % 0 lf 1016,3 hPa 0,0 l/m 2 min 0 min 615 W/m 13,5 km/h (3 Bft) 97,87 %
03.05.2018 10:12 12,3 C 23,3 C 17,8 C 75 % 0 lf 1016,3 hPa 0,0 l/m 2 min 0 min 566 W/m 13,5 km/h (3 Bft) 93,62 %
03.05.2018 10:14 12,4 C 23,9 C 18,3 C 75 % 0 lf 1016,4 hPa 0,0 l/m 2 min 0 min 587 W/m 11,3 km/h (2 Bft) 97,83 %
03.05.2018 10:16 12,5 C 25,0 C 18,9 C 75 % 0 lf 1016,4 hPa 0,0 l/m 2 min 0 min 627 W/m 6,8 km/h (2 Bft) 97,92 %
03.05.2018 10:18 12,6 C 23,3 C 19,4 C 74 % 0 lf 1016,4 hPa 0,0 l/m 2 min 0 min 642 W/m 20,3 km/h (4 Bft) 95,74 %
03.05.2018 10:20 12,7 C 24,4 C 20,0 C 74 % 0 lf 1016,5 hPa 0,0 l/m 2 min 0 min 685 W/m 13,5 km/h (3 Bft) 95,74 %
03.05.2018 10:22 12,8 C 23,9 C 20,0 C 73 % 0 lf 1016,6 hPa 0,0 l/m 2 min 0 min 677 W/m 13,5 km/h (3 Bft) 97,87 %
03.05.2018 10:24 13,0 C 25,0 C 20,0 C 74 % 0 lf 1016,5 hPa 0,0 l/m 2 min 0 min 665 W/m 11,3 km/h (2 Bft) 96,30 %
03.05.2018 10:26 13,1 C 23,9 C 18,3 C 72 % 0 lf 1016,6 hPa 0,0 l/m 2 min 0 min 700 W/m 15,8 km/h (3 Bft) 97,87 %
03.05.2018 10:28 13,1 C 24,4 C 18,9 C 71 % 0 lf 1016,6 hPa 0,0 l/m 2 min 0 min 626 W/m 13,5 km/h (3 Bft) 97,83 %
03.05.2018 10:30 13,1 C 23,9 C 17,8 C 71 % 0 lf 1016,6 hPa 0,0 l/m 2 min 0 min 593 W/m 11,3 km/h (2 Bft) 97,50 %
03.05.2018 10:32 13,1 C 24,4 C 18,9 C 71 % 0 lf 1016,7 hPa 0,0 l/m 2 min 0 min 672 W/m 13,5 km/h (3 Bft) 98,25 %
03.05.2018 10:34 13,2 C 23,9 C 18,9 C 70 % 0 lf 1016,6 hPa 0,0 l/m 2 min 0 min 651 W/m 15,8 km/h (3 Bft) 97,87 %
03.05.2018 10:36 13,2 C 23,9 C 18,9 C 70 % 0 lf 1016,7 hPa 0,0 l/m 2 min 0 min 601 W/m 18,0 km/h (3 Bft) 93,62 %
03.05.2018 10:38 13,3 C 25,0 C 20,0 C 71 % 0 lf 1016,7 hPa 0,0 l/m 2 min 0 min 684 W/m 13,5 km/h (3 Bft) 97,87 %
03.05.2018 10:40 13,3 C 25,0 C 19,4 C 71 % 0 lf 1016,7 hPa 0,0 l/m 2 min 0 min 687 W/m 9,0 km/h (2 Bft) 97,83 %
03.05.2018 10:42 13,4 C 25,6 C 19,4 C 70 % 0 lf 1016,6 hPa 0,0 l/m 2 min 0 min 672 W/m 13,5 km/h (3 Bft) 97,87 %
03.05.2018 10:44 13,4 C 25,0 C 18,3 C 70 % 0 lf 1016,6 hPa 0,0 l/m 2 min 0 min 634 W/m 9,0 km/h (2 Bft) 97,87 %
03.05.2018 10:46 13,5 C 25,6 C 19,4 C 70 % 0 lf 1016,7 hPa 0,0 l/m 2 min 0 min 578 W/m 13,5 km/h (3 Bft) 95,74 %
03.05.2018 10:48 13,6 C 26,1 C 19,4 C 70 % 0 lf 1016,7 hPa 0,0 l/m 2 min 0 min 598 W/m 13,5 km/h (3 Bft) 95,74 %
03.05.2018 10:50 13,7 C 25,0 C 20,0 C 70 % 0 lf 1016,8 hPa 0,0 l/m 2 min 0 min 594 W/m 15,8 km/h (3 Bft) 97,87 %
03.05.2018 10:52 13,7 C 24,4 C 19,4 C 69 % 0 lf 1016,7 hPa 0,0 l/m 2 min 0 min 491 W/m 18,0 km/h (3 Bft) 95,65 %
03.05.2018 10:54 13,8 C 25,6 C 20,0 C 69 % 0 lf 1016,7 hPa 0,0 l/m 2 min 0 min 756 W/m 9,0 km/h (2 Bft) 97,30 %
03.05.2018 10:56 13,8 C 25,0 C 20,0 C 68 % 0 lf 1016,7 hPa 0,0 l/m 2 min 0 min 717 W/m 15,8 km/h (3 Bft) 100,00 %
03.05.2018 10:58 13,9 C 25,0 C 19,4 C 66 % 0 lf 1016,8 hPa 0,0 l/m 2 min 0 min 660 W/m 11,3 km/h (2 Bft) 100,00 %
03.05.2018 11:00 13,9 C 25,0 C 18,9 C 66 % 0 lf 1016,8 hPa 0,0 l/m 2 min 0 min 600 W/m 13,5 km/h (3 Bft) 100,00 %
03.05.2018 11:02 13,9 C 22,2 C 17,2 C 66 % 0 lf 1016,9 hPa 0,0 l/m 2 min 0 min 466 W/m 15,8 km/h (3 Bft) 97,83 %
03.05.2018 11:04 13,9 C 21,1 C 16,7 C 64 % 0 lf 1016,9 hPa 0,0 l/m 2 min 0 min 566 W/m 11,3 km/h (2 Bft) 100,00 %
03.05.2018 11:06 14,0 C 21,7 C 17,8 C 64 % 0 lf 1016,9 hPa 0,0 l/m 2 min 0 min 666 W/m 15,8 km/h (3 Bft) 100,00 %
03.05.2018 11:08 14,0 C 22,8 C 17,8 C 63 % 0 lf 1017,0 hPa 0,0 l/m 2 min 0 min 555 W/m 13,5 km/h (3 Bft) 95,74 %
03.05.2018 11:10 14,1 C 23,9 C 17,8 C 63 % 0 lf 1017,0 hPa 0,0 l/m 2 min 0 min 607 W/m 15,8 km/h (3 Bft) 93,62 %
03.05.2018 11:12 14,1 C 23,9 C 17,2 C 62 % 0 lf 1017,1 hPa 0,0 l/m 2 min 0 min 764 W/m 15,8 km/h (3 Bft) 100,00 %
03.05.2018 11:14 14,1 C 23,9 C 16,1 C 61 % 0 lf 1017,0 hPa 0,0 l/m 2 min 0 min 765 W/m 18,0 km/h (3 Bft) 97,83 %
03.05.2018 11:16 14,2 C 25,6 C 16,1 C 61 % 0 lf 1017,0 hPa 0,0 l/m 2 min 0 min 714 W/m 20,3 km/h (4 Bft) 95,74 %
03.05.2018 11:18 14,2 C 25,6 C 16,7 C 60 % 0 lf 1017,0 hPa 0,0 l/m 2 min 0 min 709 W/m 13,5 km/h (3 Bft) 95,74 %
03.05.2018 11:20 14,2 C 23,9 C 16,1 C 58 % 0 lf 1017,0 hPa 0,0 l/m 2 min 0 min 695 W/m 11,3 km/h (2 Bft) 95,74 %
03.05.2018 11:22 14,2 C 23,9 C 17,8 C 59 % 0 lf 1017,1 hPa 0,0 l/m 2 min 0 min 726 W/m 24,8 km/h (4 Bft) 94,44 %
03.05.2018 11:24 14,2 C 25,0 C 19,4 C 57 % 0 lf 1017,1 hPa 0,0 l/m 2 min 0 min 746 W/m 11,3 km/h (2 Bft) 92,00 %
03.05.2018 11:26 14,2 C 24,4 C 20,0 C 57 % 0 lf 1017,1 hPa 0,0 l/m 2 min 0 min 683 W/m 13,5 km/h (3 Bft) 84,78 %
03.05.2018 11:28 14,2 C 23,9 C 20,6 C 57 % 0 lf 1017,0 hPa 0,0 l/m 2 min 0 min 845 W/m 9,0 km/h (2 Bft) 93,62 %
03.05.2018 11:30 14,4 C 26,1 C 21,7 C 60 % 0 lf 1017,0 hPa 0,0 l/m 2 min 0 min 837 W/m 13,5 km/h (3 Bft) 91,49 %
03.05.2018 11:32 14,4 C 26,7 C 21,7 C 58 % 0 lf 1017,1 hPa 0,0 l/m 2 min 0 min 844 W/m 15,8 km/h (3 Bft) 95,74 %
03.05.2018 11:34 14,4 C 25,6 C 21,1 C 54 % 0 lf 1017,1 hPa 0,0 l/m 2 min 0 min 850 W/m 13,5 km/h (3 Bft) 95,74 %
03.05.2018 11:36 14,5 C 26,1 C 21,7 C 55 % 0 lf 1017,2 hPa 0,0 l/m 2 min 0 min 746 W/m 15,8 km/h (3 Bft) 91,49 %
03.05.2018 11:38 14,6 C 26,1 C 21,7 C 56 % 0 lf 1017,1 hPa 0,0 l/m 2 min 0 min 779 W/m 20,3 km/h (4 Bft) 93,48 %
03.05.2018 11:40 14,6 C 26,7 C 21,1 C 57 % 0 lf 1017,1 hPa 0,0 l/m 2 min 0 min 829 W/m 13,5 km/h (3 Bft) 93,62 %
03.05.2018 11:42 14,7 C 26,1 C 21,7 C 56 % 0 lf 1017,2 hPa 0,0 l/m 2 min 0 min 852 W/m 13,5 km/h (3 Bft) 93,62 %
03.05.2018 11:44 14,8 C 26,7 C 22,2 C 56 % 0 lf 1017,1 hPa 0,0 l/m 2 min 0 min 855 W/m 11,3 km/h (2 Bft) 93,62 %
03.05.2018 11:46 14,9 C 26,7 C 22,2 C 57 % 0 lf 1017,2 hPa 0,0 l/m 2 min 0 min 858 W/m 22,5 km/h (4 Bft) 89,36 %
03.05.2018 11:48 15,1 C 27,2 C 22,8 C 57 % 0 lf 1017,2 hPa 0,0 l/m 2 min 0 min 860 W/m 18,0 km/h (3 Bft) 95,74 %
03.05.2018 11:50 15,2 C 27,2 C 23,3 C 57 % 0 lf 1017,2 hPa 0,0 l/m 2 min 0 min 862 W/m 15,8 km/h (3 Bft) 93,48 %
03.05.2018 11:52 15,3 C 27,2 C 22,2 C 55 % 0 lf 1017,2 hPa 0,0 l/m 2 min 0 min 862 W/m 20,3 km/h (4 Bft) 94,59 %
03.05.2018 11:54 15,4 C 27,2 C 21,7 C 55 % 0 lf 1017,2 hPa 0,0 l/m 2 min 0 min 806 W/m 13,5 km/h (3 Bft) 93,62 %
03.05.2018 11:56 15,5 C 27,8 C 21,7 C 57 % 0 lf 1017,2 hPa 0,0 l/m 2 min 0 min 847 W/m 15,8 km/h (3 Bft) 91,49 %
03.05.2018 11:58 15,6 C 26,1 C 20,6 C 54 % 0 lf 1017,2 hPa 0,0 l/m 2 min 0 min 807 W/m 18,0 km/h (3 Bft) 95,74 %
03.05.2018 12:00 15,6 C 27,2 C 21,1 C 55 % 0 lf 1017,2 hPa 0,0 l/m 2 min 0 min 801 W/m 11,3 km/h (2 Bft) 95,65 %
03.05.2018 12:02 15,6 C 25,0 C 21,7 C 55 % 0 lf 1017,2 hPa 0,0 l/m 2 min 0 min 672 W/m 15,8 km/h (3 Bft) 95,83 %
03.05.2018 12:04 15,7 C 26,1 C 21,7 C 55 % 0 lf 1017,1 hPa 0,0 l/m 2 min 0 min 556 W/m 11,3 km/h (2 Bft) 97,87 %
03.05.2018 12:06 15,8 C 25,6 C 20,6 C 55 % 0 lf 1017,1 hPa 0,0 l/m 2 min 0 min 401 W/m 18,0 km/h (3 Bft) 95,74 %
03.05.2018 12:08 15,8 C 26,7 C 20,6 C 55 % 0 lf 1017,2 hPa 0,0 l/m 0 min 0 min 201 W/m 13,5 km/h (3 Bft) 97,87 %
03.05.2018 12:10 15,8 C 26,7 C 21,1 C 54 % 0 lf 1017,2 hPa 0,0 l/m 0 min 0 min 208 W/m 18,0 km/h (3 Bft) 95,74 %
03.05.2018 12:12 15,9 C 26,7 C 21,1 C 53 % 0 lf 1017,2 hPa 0,0 l/m 0 min 0 min 276 W/m 15,8 km/h (3 Bft) 97,83 %
03.05.2018 12:14 15,8 C 27,2 C 20,6 C 51 % 0 lf 1017,2 hPa 0,0 l/m 2 min 0 min 432 W/m 18,0 km/h (3 Bft) 97,87 %
03.05.2018 12:16 15,8 C 26,1 C 19,4 C 51 % 0 lf 1017,2 hPa 0,0 l/m 2 min 0 min 592 W/m 20,3 km/h (4 Bft) 93,62 %
03.05.2018 12:18 15,7 C 26,7 C 19,4 C 53 % 0 lf 1017,3 hPa 0,0 l/m 2 min 0 min 688 W/m 15,8 km/h (3 Bft) 97,87 %
03.05.2018 12:20 15,7 C 26,1 C 20,6 C 53 % 0 lf 1017,2 hPa 0,0 l/m 2 min 0 min 768 W/m 9,0 km/h (2 Bft) 100,00 %
03.05.2018 12:22 15,7 C 25,6 C 21,1 C 52 % 0 lf 1017,2 hPa 0,0 l/m 2 min 0 min 910 W/m 22,5 km/h (4 Bft) 96,30 %
03.05.2018 12:24 15,7 C 26,7 C 22,2 C 52 % 0 lf 1017,2 hPa 0,0 l/m 2 min 0 min 921 W/m 15,8 km/h (3 Bft) 97,87 %
03.05.2018 12:26 15,8 C 26,7 C 22,8 C 52 % 0 lf 1017,2 hPa 0,0 l/m 2 min 0 min 879 W/m 15,8 km/h (3 Bft) 100,00 %
03.05.2018 12:28 15,9 C 25,0 C 22,2 C 51 % 0 lf 1017,2 hPa 0,0 l/m 2 min 0 min 752 W/m 13,5 km/h (3 Bft) 100,00 %
03.05.2018 12:30 16,0 C 25,0 C 22,2 C 52 % 0 lf 1017,3 hPa 0,0 l/m 2 min 0 min 775 W/m 18,0 km/h (3 Bft) 100,00 %
03.05.2018 12:32 16,0 C 25,0 C 21,1 C 51 % 0 lf 1017,3 hPa 0,0 l/m 2 min 0 min 720 W/m 18,0 km/h (3 Bft) 97,87 %
03.05.2018 12:34 16,0 C 23,9 C 20,0 C 51 % 0 lf 1017,3 hPa 0,0 l/m 2 min 0 min 670 W/m 20,3 km/h (4 Bft) 100,00 %
03.05.2018 12:36 15,9 C 23,3 C 20,0 C 52 % 0 lf 1017,3 hPa 0,0 l/m 2 min 0 min 664 W/m 22,5 km/h (4 Bft) 100,00 %
03.05.2018 12:38 15,8 C 23,9 C 19,4 C 51 % 0 lf 1017,3 hPa 0,0 l/m 2 min 0 min 697 W/m 22,5 km/h (4 Bft) 100,00 %
03.05.2018 12:40 15,9 C 25,6 C 21,1 C 54 % 0 lf 1017,2 hPa 0,0 l/m 2 min 0 min 801 W/m 15,8 km/h (3 Bft) 97,87 %
03.05.2018 12:42 15,9 C 25,6 C 21,7 C 53 % 0 lf 1017,2 hPa 0,0 l/m 2 min 0 min 838 W/m 20,3 km/h (4 Bft) 100,00 %
03.05.2018 12:44 15,9 C 24,4 C 20,0 C 52 % 0 lf 1017,2 hPa 0,0 l/m 2 min 0 min 738 W/m 18,0 km/h (3 Bft) 100,00 %
03.05.2018 12:46 15,9 C 25,0 C 20,6 C 53 % 0 lf 1017,3 hPa 0,0 l/m 2 min 0 min 750 W/m 22,5 km/h (4 Bft) 97,87 %
03.05.2018 12:48 16,0 C 25,6 C 20,0 C 54 % 0 lf 1017,3 hPa 0,0 l/m 2 min 0 min 854 W/m 20,3 km/h (4 Bft) 100,00 %
03.05.2018 12:50 16,0 C 25,6 C 18,9 C 53 % 0 lf 1017,3 hPa 0,0 l/m 2 min 0 min 888 W/m 22,5 km/h (4 Bft) 100,00 %
03.05.2018 12:52 15,9 C 25,0 C 17,8 C 51 % 0 lf 1017,3 hPa 0,0 l/m 2 min 0 min 940 W/m 18,0 km/h (3 Bft) 97,87 %
03.05.2018 12:54 15,9 C 25,0 C 17,8 C 51 % 0 lf 1017,2 hPa 0,0 l/m 2 min 0 min 927 W/m 22,5 km/h (4 Bft) 100,00 %
03.05.2018 12:56 15,9 C 24,4 C 17,2 C 52 % 0 lf 1017,3 hPa 0,0 l/m 2 min 0 min 856 W/m 22,5 km/h (4 Bft) 100,00 %
03.05.2018 12:58 15,9 C 24,4 C 16,7 C 51 % 0 lf 1017,3 hPa 0,0 l/m 2 min 0 min 824 W/m 18,0 km/h (3 Bft) 97,87 %
03.05.2018 13:00 15,9 C 23,9 C 17,2 C 53 % 0 lf 1017,3 hPa 0,0 l/m 2 min 0 min 616 W/m 15,8 km/h (3 Bft) 100,00 %
03.05.2018 13:02 15,9 C 23,9 C 16,7 C 53 % 0 lf 1017,2 hPa 0,0 l/m 2 min 0 min 645 W/m 15,8 km/h (3 Bft) 100,00 %
03.05.2018 13:04 15,9 C 24,4 C 16,7 C 53 % 0 lf 1017,2 hPa 0,0 l/m 2 min 0 min 813 W/m 15,8 km/h (3 Bft) 100,00 %
03.05.2018 13:06 15,8 C 23,3 C 16,7 C 53 % 0 lf 1017,3 hPa 0,0 l/m 2 min 0 min 640 W/m 24,8 km/h (4 Bft) 97,87 %
03.05.2018 13:08 15,8 C 23,3 C 16,7 C 52 % 0 lf 1017,2 hPa 0,0 l/m 2 min 0 min 664 W/m 20,3 km/h (4 Bft) 100,00 %
03.05.2018 13:10 15,8 C 23,9 C 16,1 C 52 % 0 lf 1017,2 hPa 0,0 l/m 2 min 0 min 777 W/m 15,8 km/h (3 Bft) 100,00 %
03.05.2018 13:12 15,8 C 23,3 C 16,7 C 53 % 0 lf 1017,1 hPa 0,0 l/m 2 min 0 min 724 W/m 11,3 km/h (2 Bft) 97,87 %
03.05.2018 13:14 15,8 C 23,9 C 16,7 C 53 % 0 lf 1017,1 hPa 0,0 l/m 2 min 0 min 616 W/m 13,5 km/h (3 Bft) 100,00 %
03.05.2018 13:16 15,8 C 23,3 C 16,1 C 52 % 0 lf 1017,2 hPa 0,0 l/m 2 min 0 min 738 W/m 22,5 km/h (4 Bft) 95,74 %
03.05.2018 13:18 15,8 C 23,3 C 16,1 C 53 % 0 lf 1017,1 hPa 0,0 l/m 2 min 0 min 838 W/m 15,8 km/h (3 Bft) 100,00 %
03.05.2018 13:20 15,9 C 24,4 C 17,2 C 55 % 0 lf 1017,2 hPa 0,0 l/m 2 min 0 min 734 W/m 22,5 km/h (4 Bft) 97,87 %
03.05.2018 13:22 15,9 C 24,4 C 17,8 C 54 % 0 lf 1017,2 hPa 0,0 l/m 2 min 0 min 960 W/m 20,3 km/h (4 Bft) 100,00 %
03.05.2018 13:24 16,0 C 22,2 C 17,2 C 53 % 0 lf 1017,2 hPa 0,0 l/m 2 min 0 min 732 W/m 11,3 km/h (2 Bft) 98,15 %
03.05.2018 13:26 16,1 C 22,2 C 17,8 C 53 % 0 lf 1017,1 hPa 0,0 l/m 2 min 0 min 403 W/m 13,5 km/h (3 Bft) 100,00 %
03.05.2018 13:28 16,1 C 20,6 C 16,7 C 53 % 0 lf 1017,2 hPa 0,0 l/m 0 min 0 min 344 W/m 24,8 km/h (4 Bft) 97,87 %
03.05.2018 13:30 16,1 C 20,0 C 16,1 C 52 % 0 lf 1017,2 hPa 0,0 l/m 0 min 0 min 292 W/m 24,8 km/h (4 Bft) 95,74 %
03.05.2018 13:32 16,0 C 18,3 C 15,6 C 51 % 0 lf 1017,2 hPa 0,0 l/m 0 min 0 min 298 W/m 20,3 km/h (4 Bft) 95,74 %
03.05.2018 13:34 15,9 C 19,4 C 15,6 C 53 % 0 lf 1017,2 hPa 0,0 l/m 0 min 0 min 327 W/m 15,8 km/h (3 Bft) 97,87 %
03.05.2018 13:36 15,9 C 20,0 C 16,1 C 54 % 0 lf 1017,2 hPa 0,0 l/m 2 min 0 min 544 W/m 22,5 km/h (4 Bft) 97,83 %
03.05.2018 13:38 15,9 C 20,0 C 15,6 C 53 % 0 lf 1017,2 hPa 0,0 l/m 2 min 0 min 498 W/m 18,0 km/h (3 Bft) 97,87 %
03.05.2018 13:40 15,8 C 22,2 C 16,1 C 53 % 0 lf 1017,2 hPa 0,0 l/m 2 min 0 min 650 W/m 13,5 km/h (3 Bft) 95,74 %
03.05.2018 13:42 15,8 C 22,8 C 16,7 C 55 % 0 lf 1017,2 hPa 0,0 l/m 2 min 0 min 921 W/m 15,8 km/h (3 Bft) 91,49 %
03.05.2018 13:44 15,8 C 22,8 C 16,7 C 54 % 0 lf 1017,1 hPa 0,0 l/m 2 min 0 min 638 W/m 13,5 km/h (3 Bft) 95,74 %
03.05.2018 13:46 15,8 C 24,4 C 17,2 C 54 % 0 lf 1017,1 hPa 0,0 l/m 2 min 0 min 880 W/m 13,5 km/h (3 Bft) 93,62 %
03.05.2018 13:48 15,9 C 26,1 C 17,8 C 56 % 0 lf 1017,0 hPa 0,0 l/m 2 min 0 min 883 W/m 9,0 km/h (2 Bft) 95,92 %
03.05.2018 13:50 16,0 C 26,1 C 17,8 C 54 % 0 lf 1017,2 hPa 0,0 l/m 2 min 0 min 1039 W/m 13,5 km/h (3 Bft) 91,49 %
03.05.2018 13:52 16,1 C 27,2 C 18,3 C 54 % 0 lf 1017,1 hPa 0,0 l/m 2 min 0 min 1054 W/m 15,8 km/h (3 Bft) 95,74 %
03.05.2018 13:54 16,2 C 25,6 C 18,3 C 54 % 0 lf 1017,3 hPa 0,0 l/m 2 min 0 min 1033 W/m 20,3 km/h (4 Bft) 91,49 %
03.05.2018 13:56 16,3 C 26,1 C 18,3 C 55 % 0 lf 1017,3 hPa 0,0 l/m 2 min 0 min 883 W/m 20,3 km/h (4 Bft) 91,49 %
03.05.2018 13:58 16,3 C 26,1 C 17,8 C 53 % 0 lf 1017,2 hPa 0,0 l/m 2 min 0 min 969 W/m 24,8 km/h (4 Bft) 93,48 %
03.05.2018 14:00 16,5 C 24,4 C 18,3 C 55 % 0 lf 1017,1 hPa 0,0 l/m 2 min 0 min 942 W/m 22,5 km/h (4 Bft) 89,36 %
03.05.2018 14:02 16,6 C 22,2 C 17,8 C 53 % 0 lf 1017,2 hPa 0,0 l/m 2 min 0 min 424 W/m 22,5 km/h (4 Bft) 93,62 %
03.05.2018 14:04 16,6 C 20,6 C 16,7 C 52 % 0 lf 1017,3 hPa 0,0 l/m 0 min 0 min 276 W/m 15,8 km/h (3 Bft) 93,62 %
03.05.2018 14:06 16,6 C 20,0 C 16,7 C 52 % 0 lf 1017,2 hPa 0,0 l/m 0 min 0 min 330 W/m 13,5 km/h (3 Bft) 91,49 %
03.05.2018 14:08 16,6 C 20,6 C 17,2 C 53 % 0 lf 1017,2 hPa 0,0 l/m 2 min 0 min 496 W/m 6,8 km/h (2 Bft) 91,49 %
03.05.2018 14:10 16,6 C 21,7 C 17,8 C 54 % 0 lf 1017,2 hPa 0,0 l/m 2 min 0 min 606 W/m 9,0 km/h (2 Bft) 86,96 %
03.05.2018 14:12 16,6 C 22,8 C 17,2 C 53 % 0 lf 1017,2 hPa 0,0 l/m 2 min 0 min 636 W/m 11,3 km/h (2 Bft) 93,62 %
03.05.2018 14:14 16,6 C 21,1 C 17,2 C 52 % 0 lf 1017,3 hPa 0,0 l/m 2 min 0 min 406 W/m 20,3 km/h (4 Bft) 93,62 %
03.05.2018 14:16 16,5 C 22,8 C 16,7 C 50 % 0 lf 1017,2 hPa 0,0 l/m 0 min 0 min 357 W/m 15,8 km/h (3 Bft) 91,49 %
03.05.2018 14:18 16,4 C 23,3 C 17,2 C 52 % 0 lf 1017,2 hPa 0,0 l/m 2 min 0 min 560 W/m 9,0 km/h (2 Bft) 93,62 %
03.05.2018 14:20 16,4 C 22,8 C 17,8 C 52 % 0 lf 1017,2 hPa 0,0 l/m 2 min 0 min 497 W/m 13,5 km/h (3 Bft) 93,62 %
03.05.2018 14:22 16,5 C 22,8 C 17,8 C 53 % 0 lf 1017,2 hPa 0,0 l/m 2 min 0 min 546 W/m 13,5 km/h (3 Bft) 93,48 %
03.05.2018 14:24 16,6 C 23,3 C 18,3 C 54 % 0 lf 1017,2 hPa 0,0 l/m 2 min 0 min 605 W/m 11,3 km/h (2 Bft) 93,62 %
03.05.2018 14:26 16,6 C 23,3 C 18,3 C 52 % 0 lf 1017,3 hPa 0,0 l/m 2 min 0 min 617 W/m 15,8 km/h (3 Bft) 93,62 %
03.05.2018 14:28 16,6 C 23,9 C 18,3 C 52 % 0 lf 1017,3 hPa 0,0 l/m 2 min 0 min 725 W/m 15,8 km/h (3 Bft) 95,74 %
03.05.2018 14:30 16,7 C 24,4 C 18,9 C 52 % 0 lf 1017,4 hPa 0,0 l/m 2 min 0 min 865 W/m 11,3 km/h (2 Bft) 95,74 %
03.05.2018 14:32 16,8 C 25,6 C 18,9 C 53 % 0 lf 1017,3 hPa 0,0 l/m 2 min 0 min 858 W/m 11,3 km/h (2 Bft) 93,62 %
03.05.2018 14:34 16,8 C 24,4 C 18,3 C 51 % 0 lf 1017,4 hPa 0,0 l/m 2 min 0 min 856 W/m 13,5 km/h (3 Bft) 97,83 %
03.05.2018 14:36 16,8 C 24,4 C 18,3 C 50 % 0 lf 1017,4 hPa 0,0 l/m 2 min 0 min 856 W/m 18,0 km/h (3 Bft) 97,87 %
03.05.2018 14:38 16,8 C 23,3 C 17,8 C 50 % 0 lf 1017,4 hPa 0,0 l/m 2 min 0 min 649 W/m 13,5 km/h (3 Bft) 97,87 %
03.05.2018 14:40 16,8 C 23,3 C 17,8 C 51 % 0 lf 1017,3 hPa 0,0 l/m 0 min 0 min 359 W/m 11,3 km/h (2 Bft) 97,87 %
03.05.2018 14:42 16,9 C 22,8 C 18,3 C 51 % 0 lf 1017,3 hPa 0,0 l/m 2 min 0 min 433 W/m 11,3 km/h (2 Bft) 95,74 %
03.05.2018 14:44 16,9 C 22,8 C 18,3 C 52 % 0 lf 1017,3 hPa 0,0 l/m 2 min 0 min 521 W/m 15,8 km/h (3 Bft) 97,87 %
03.05.2018 14:46 16,9 C 23,3 C 18,9 C 49 % 0 lf 1017,3 hPa 0,0 l/m 2 min 0 min 734 W/m 15,8 km/h (3 Bft) 97,83 %
03.05.2018 14:48 16,9 C 23,9 C 19,4 C 50 % 0 lf 1017,4 hPa 0,0 l/m 2 min 0 min 782 W/m 11,3 km/h (2 Bft) 97,87 %
03.05.2018 14:50 16,9 C 24,4 C 20,6 C 50 % 0 lf 1017,5 hPa 0,0 l/m 2 min 0 min 812 W/m 20,3 km/h (4 Bft) 97,87 %
03.05.2018 14:52 16,9 C 24,4 C 20,6 C 48 % 0 lf 1017,4 hPa 0,0 l/m 2 min 0 min 931 W/m 13,5 km/h (3 Bft) 97,30 %
03.05.2018 14:54 16,9 C 25,6 C 21,7 C 50 % 0 lf 1017,4 hPa 0,0 l/m 2 min 0 min 964 W/m 20,3 km/h (4 Bft) 95,74 %
03.05.2018 14:56 16,9 C 26,1 C 22,8 C 51 % 0 lf 1017,4 hPa 0,0 l/m 2 min 0 min 982 W/m 18,0 km/h (3 Bft) 97,83 %
03.05.2018 14:58 17,1 C 26,1 C 22,8 C 51 % 0 lf 1017,4 hPa 0,0 l/m 2 min 0 min 825 W/m 15,8 km/h (3 Bft) 97,87 %
03.05.2018 15:00 17,2 C 24,4 C 22,2 C 49 % 0 lf 1017,4 hPa 0,0 l/m 2 min 0 min 786 W/m 22,5 km/h (4 Bft) 98,18 %
03.05.2018 15:02 17,2 C 23,9 C 21,1 C 48 % 0 lf 1017,4 hPa 0,0 l/m 2 min 0 min 746 W/m 20,3 km/h (4 Bft) 100,00 %
03.05.2018 15:04 17,2 C 23,9 C 22,2 C 49 % 0 lf 1017,4 hPa 0,0 l/m 2 min 0 min 705 W/m 11,3 km/h (2 Bft) 97,87 %
03.05.2018 15:06 17,2 C 23,9 C 23,3 C 49 % 0 lf 1017,3 hPa 0,0 l/m 2 min 0 min 760 W/m 20,3 km/h (4 Bft) 100,00 %
03.05.2018 15:08 17,3 C 24,4 C 24,4 C 48 % 0 lf 1017,3 hPa 0,0 l/m 2 min 0 min 923 W/m 9,0 km/h (2 Bft) 97,87 %
03.05.2018 15:10 17,4 C 25,6 C 25,0 C 48 % 0 lf 1017,3 hPa 0,0 l/m 2 min 0 min 937 W/m 20,3 km/h (4 Bft) 97,83 %
03.05.2018 15:12 17,3 C 24,4 C 22,8 C 48 % 0 lf 1017,3 hPa 0,0 l/m 2 min 0 min 825 W/m 20,3 km/h (4 Bft) 100,00 %
03.05.2018 15:14 17,4 C 23,9 C 23,3 C 50 % 0 lf 1017,3 hPa 0,0 l/m 2 min 0 min 739 W/m 18,0 km/h (3 Bft) 100,00 %
03.05.2018 15:16 17,4 C 23,9 C 23,3 C 49 % 0 lf 1017,3 hPa 0,0 l/m 2 min 0 min 807 W/m 13,5 km/h (3 Bft) 100,00 %
03.05.2018 15:18 17,4 C 23,3 C 22,8 C 49 % 0 lf 1017,3 hPa 0,0 l/m 2 min 0 min 685 W/m 20,3 km/h (4 Bft) 100,00 %
03.05.2018 15:20 17,4 C 22,8 C 22,8 C 48 % 0 lf 1017,3 hPa 0,0 l/m 2 min 0 min 637 W/m 24,8 km/h (4 Bft) 100,00 %
03.05.2018 15:22 17,4 C 22,8 C 22,8 C 48 % 0 lf 1017,3 hPa 0,0 l/m 2 min 0 min 697 W/m 18,0 km/h (3 Bft) 97,83 %
03.05.2018 15:24 17,4 C 22,2 C 22,8 C 48 % 0 lf 1017,3 hPa 0,0 l/m 2 min 0 min 706 W/m 22,5 km/h (4 Bft) 100,00 %
03.05.2018 15:26 17,3 C 23,3 C 23,9 C 49 % 0 lf 1017,4 hPa 0,0 l/m 2 min 0 min 892 W/m 20,3 km/h (4 Bft) 93,62 %
03.05.2018 15:28 17,3 C 23,3 C 23,9 C 48 % 0 lf 1017,4 hPa 0,0 l/m 2 min 0 min 836 W/m 22,5 km/h (4 Bft) 100,00 %
03.05.2018 15:30 17,2 C 23,3 C 23,9 C 47 % 0 lf 1017,3 hPa 0,0 l/m 2 min 0 min 839 W/m 15,8 km/h (3 Bft) 97,87 %
03.05.2018 15:32 17,2 C 23,9 C 24,4 C 49 % 0 lf 1017,3 hPa 0,0 l/m 2 min 0 min 836 W/m 13,5 km/h (3 Bft) 100,00 %
03.05.2018 15:34 17,2 C 23,3 C 23,9 C 48 % 0 lf 1017,3 hPa 0,0 l/m 2 min 0 min 781 W/m 15,8 km/h (3 Bft) 100,00 %
03.05.2018 15:36 17,2 C 23,3 C 22,8 C 48 % 0 lf 1017,3 hPa 0,0 l/m 2 min 0 min 684 W/m 15,8 km/h (3 Bft) 100,00 %
03.05.2018 15:38 17,2 C 23,3 C 23,9 C 48 % 0 lf 1017,3 hPa 0,0 l/m 2 min 0 min 743 W/m 15,8 km/h (3 Bft) 100,00 %
03.05.2018 15:40 17,2 C 23,9 C 23,9 C 50 % 0 lf 1017,3 hPa 0,0 l/m 2 min 0 min 661 W/m 15,8 km/h (3 Bft) 100,00 %
03.05.2018 15:42 17,3 C 23,9 C 23,3 C 47 % 0 lf 1017,3 hPa 0,0 l/m 2 min 0 min 574 W/m 9,0 km/h (2 Bft) 100,00 %
03.05.2018 15:44 17,3 C 23,3 C 24,4 C 49 % 0 lf 1017,2 hPa 0,0 l/m 2 min 0 min 657 W/m 11,3 km/h (2 Bft) 100,00 %
03.05.2018 15:46 17,4 C 23,3 C 25,0 C 48 % 0 lf 1017,2 hPa 0,0 l/m 2 min 0 min 802 W/m 13,5 km/h (3 Bft) 97,83 %
03.05.2018 15:48 17,4 C 23,9 C 25,6 C 47 % 0 lf 1017,2 hPa 0,0 l/m 2 min 0 min 846 W/m 18,0 km/h (3 Bft) 100,00 %
03.05.2018 15:50 17,6 C 25,0 C 26,7 C 50 % 0 lf 1017,2 hPa 0,0 l/m 2 min 0 min 862 W/m 11,3 km/h (2 Bft) 100,00 %
03.05.2018 15:52 17,7 C 25,6 C 28,3 C 49 % 0 lf 1017,2 hPa 0,0 l/m 2 min 0 min 870 W/m 11,3 km/h (2 Bft) 97,87 %
03.05.2018 15:54 17,8 C 25,0 C 26,7 C 47 % 0 lf 1017,2 hPa 0,0 l/m 2 min 0 min 803 W/m 22,5 km/h (4 Bft) 97,87 %
03.05.2018 15:56 17,8 C 25,0 C 25,6 C 46 % 0 lf 1017,2 hPa 0,0 l/m 2 min 0 min 788 W/m 13,5 km/h (3 Bft) 95,65 %
03.05.2018 15:58 17,9 C 24,4 C 26,7 C 49 % 0 lf 1017,1 hPa 0,0 l/m 2 min 0 min 763 W/m 4,5 km/h (1 Bft) 97,87 %
03.05.2018 16:00 18,0 C 24,4 C 26,7 C 48 % 0 lf 1017,2 hPa 0,0 l/m 2 min 0 min 869 W/m 13,5 km/h (3 Bft) 95,74 %
03.05.2018 16:02 18,2 C 25,0 C 27,2 C 49 % 0 lf 1017,1 hPa 0,0 l/m 2 min 0 min 891 W/m 11,3 km/h (2 Bft) 97,87 %
03.05.2018 16:04 18,3 C 25,6 C 28,3 C 47 % 0 lf 1017,1 hPa 0,0 l/m 2 min 0 min 915 W/m 18,0 km/h (3 Bft) 93,62 %
03.05.2018 16:06 18,3 C 25,0 C 27,8 C 46 % 0 lf 1017,1 hPa 0,0 l/m 2 min 0 min 836 W/m 15,8 km/h (3 Bft) 97,87 %
03.05.2018 16:08 18,4 C 24,4 C 27,2 C 48 % 0 lf 1017,1 hPa 0,0 l/m 2 min 0 min 757 W/m 15,8 km/h (3 Bft) 97,83 %
03.05.2018 16:10 18,5 C 23,9 C 26,1 C 45 % 0 lf 1017,1 hPa 0,0 l/m 2 min 0 min 691 W/m 18,0 km/h (3 Bft) 97,87 %
03.05.2018 16:12 18,5 C 23,3 C 26,1 C 44 % 0 lf 1017,1 hPa 0,0 l/m 2 min 0 min 733 W/m 11,3 km/h (2 Bft) 97,87 %
03.05.2018 16:14 18,5 C 23,3 C 26,1 C 44 % 0 lf 1017,1 hPa 0,0 l/m 2 min 0 min 746 W/m 18,0 km/h (3 Bft) 93,62 %
03.05.2018 16:16 18,5 C 22,2 C 25,0 C 45 % 0 lf 1017,1 hPa 0,0 l/m 2 min 0 min 804 W/m 18,0 km/h (3 Bft) 97,87 %
03.05.2018 16:18 18,5 C 22,8 C 23,9 C 45 % 0 lf 1017,1 hPa 0,0 l/m 2 min 0 min 844 W/m 9,0 km/h (2 Bft) 97,87 %
03.05.2018 16:20 18,6 C 21,7 C 22,8 C 46 % 0 lf 1017,2 hPa 0,0 l/m 2 min 0 min 719 W/m 22,5 km/h (4 Bft) 93,48 %
03.05.2018 16:22 18,4 C 20,0 C 20,0 C 46 % 0 lf 1017,3 hPa 0,0 l/m 0 min 0 min 310 W/m 29,3 km/h (5 Bft) 97,87 %
03.05.2018 16:24 18,3 C 19,4 C 19,4 C 46 % 0 lf 1017,2 hPa 0,0 l/m 0 min 0 min 283 W/m 29,3 km/h (5 Bft) 97,87 %
03.05.2018 16:26 18,2 C 18,9 C 18,3 C 47 % 0 lf 1017,1 hPa 0,0 l/m 0 min 0 min 279 W/m 22,5 km/h (4 Bft) 95,74 %
03.05.2018 16:28 18,1 C 18,3 C 17,8 C 47 % 0 lf 1017,1 hPa 0,0 l/m 0 min 0 min 261 W/m 15,8 km/h (3 Bft) 95,74 %
03.05.2018 16:30 17,9 C 18,3 C 17,8 C 47 % 0 lf 1017,2 hPa 0,0 l/m 0 min 0 min 273 W/m 20,3 km/h (4 Bft) 93,62 %
03.05.2018 16:32 17,8 C 18,3 C 17,2 C 47 % 0 lf 1017,1 hPa 0,0 l/m 0 min 0 min 282 W/m 20,3 km/h (4 Bft) 95,65 %
03.05.2018 16:34 17,7 C 18,9 C 17,8 C 47 % 0 lf 1017,2 hPa 0,0 l/m 2 min 0 min 389 W/m 22,5 km/h (4 Bft) 93,62 %
03.05.2018 16:36 17,6 C 18,9 C 18,3 C 47 % 0 lf 1017,2 hPa 0,0 l/m 2 min 0 min 548 W/m 20,3 km/h (4 Bft) 97,87 %
03.05.2018 16:38 17,4 C 19,4 C 18,9 C 47 % 0 lf 1017,2 hPa 0,0 l/m 2 min 0 min 611 W/m 15,8 km/h (3 Bft) 95,74 %
03.05.2018 16:40 17,4 C 19,4 C 19,4 C 47 % 0 lf 1017,2 hPa 0,0 l/m 2 min 0 min 703 W/m 15,8 km/h (3 Bft) 95,74 %
03.05.2018 16:42 17,4 C 20,0 C 21,1 C 48 % 0 lf 1017,2 hPa 0,0 l/m 2 min 0 min 729 W/m 18,0 km/h (3 Bft) 95,74 %
03.05.2018 16:44 17,4 C 20,6 C 22,2 C 50 % 0 lf 1017,2 hPa 0,0 l/m 2 min 0 min 762 W/m 11,3 km/h (2 Bft) 93,48 %
03.05.2018 16:46 17,6 C 21,1 C 22,2 C 49 % 0 lf 1017,2 hPa 0,0 l/m 2 min 0 min 773 W/m 9,0 km/h (2 Bft) 95,74 %
03.05.2018 16:48 17,7 C 21,1 C 21,7 C 48 % 0 lf 1017,1 hPa 0,0 l/m 2 min 0 min 599 W/m 13,5 km/h (3 Bft) 93,62 %
03.05.2018 16:50 17,8 C 20,6 C 21,1 C 47 % 0 lf 1017,1 hPa 0,0 l/m 2 min 0 min 512 W/m 13,5 km/h (3 Bft) 95,74 %
03.05.2018 16:52 17,8 C 20,6 C 21,1 C 48 % 0 lf 1017,1 hPa 0,0 l/m 2 min 0 min 607 W/m 15,8 km/h (3 Bft) 95,74 %
03.05.2018 16:54 17,9 C 20,0 C 20,6 C 47 % 0 lf 1017,2 hPa 0,0 l/m 2 min 0 min 566 W/m 20,3 km/h (4 Bft) 91,49 %
03.05.2018 16:56 17,9 C 19,4 C 20,0 C 45 % 0 lf 1017,2 hPa 0,0 l/m 2 min 0 min 412 W/m 11,3 km/h (2 Bft) 93,48 %
03.05.2018 16:58 17,9 C 19,4 C 19,4 C 45 % 0 lf 1017,2 hPa 0,0 l/m 2 min 0 min 426 W/m 18,0 km/h (3 Bft) 91,49 %
03.05.2018 17:00 17,9 C 20,0 C 20,6 C 46 % 0 lf 1017,2 hPa 0,0 l/m 2 min 0 min 553 W/m 13,5 km/h (3 Bft) 93,62 %
03.05.2018 17:02 17,9 C 19,4 C 20,6 C 46 % 0 lf 1017,2 hPa 0,0 l/m 2 min 0 min 574 W/m 13,5 km/h (3 Bft) 93,62 %
03.05.2018 17:04 17,9 C 19,4 C 19,4 C 45 % 0 lf 1017,2 hPa 0,0 l/m 2 min 0 min 546 W/m 11,3 km/h (2 Bft) 93,62 %
03.05.2018 17:06 17,8 C 18,9 C 18,9 C 46 % 0 lf 1017,2 hPa 0,0 l/m 2 min 0 min 548 W/m 20,3 km/h (4 Bft) 91,49 %
03.05.2018 17:08 17,8 C 18,9 C 18,9 C 48 % 0 lf 1017,2 hPa 0,0 l/m 2 min 0 min 567 W/m 22,5 km/h (4 Bft) 93,48 %
03.05.2018 17:10 17,7 C 18,9 C 18,3 C 47 % 0 lf 1017,2 hPa 0,0 l/m 2 min 0 min 580 W/m 27,0 km/h (4 Bft) 91,49 %
03.05.2018 17:12 17,6 C 18,3 C 17,8 C 47 % 0 lf 1017,2 hPa 0,0 l/m 2 min 0 min 362 W/m 20,3 km/h (4 Bft) 91,49 %
03.05.2018 17:14 17,6 C 18,9 C 18,3 C 48 % 0 lf 1017,1 hPa 0,0 l/m 2 min 0 min 565 W/m 13,5 km/h (3 Bft) 93,62 %
03.05.2018 17:16 17,5 C 18,9 C 18,3 C 48 % 0 lf 1017,2 hPa 0,0 l/m 2 min 0 min 650 W/m 20,3 km/h (4 Bft) 93,62 %
03.05.2018 17:18 17,5 C 18,9 C 18,9 C 48 % 0 lf 1017,1 hPa 0,0 l/m 2 min 0 min 616 W/m 20,3 km/h (4 Bft) 93,62 %
03.05.2018 17:20 17,6 C 19,4 C 18,9 C 48 % 0 lf 1017,3 hPa 0,0 l/m 2 min 0 min 443 W/m 15,8 km/h (3 Bft) 97,44 %
03.05.2018 17:22 17,5 C 18,9 C 17,8 C 47 % 0 lf 1017,3 hPa 0,0 l/m 2 min 0 min 500 W/m 13,5 km/h (3 Bft) 97,83 %
03.05.2018 17:24 17,5 C 19,4 C 18,3 C 48 % 0 lf 1017,2 hPa 0,0 l/m 2 min 0 min 612 W/m 18,0 km/h (3 Bft) 97,92 %
03.05.2018 17:26 17,5 C 19,4 C 18,3 C 49 % 0 lf 1017,2 hPa 0,0 l/m 2 min 0 min 478 W/m 18,0 km/h (3 Bft) 93,62 %
03.05.2018 17:28 17,5 C 19,4 C 18,3 C 48 % 0 lf 1017,3 hPa 0,0 l/m 2 min 0 min 439 W/m 18,0 km/h (3 Bft) 95,65 %
03.05.2018 17:30 17,5 C 19,4 C 18,3 C 49 % 0 lf 1017,4 hPa 0,0 l/m 2 min 0 min 465 W/m 22,5 km/h (4 Bft) 97,87 %
03.05.2018 17:32 17,6 C 19,4 C 18,9 C 50 % 0 lf 1017,2 hPa 0,0 l/m 2 min 0 min 480 W/m 13,5 km/h (3 Bft) 95,74 %
03.05.2018 17:34 17,6 C 19,4 C 18,9 C 50 % 0 lf 1017,2 hPa 0,0 l/m 2 min 0 min 389 W/m 20,3 km/h (4 Bft) 95,74 %
03.05.2018 17:36 17,7 C 18,9 C 17,8 C 49 % 0 lf 1017,2 hPa 0,0 l/m 2 min 0 min 315 W/m 22,5 km/h (4 Bft) 97,87 %
03.05.2018 17:38 17,6 C 18,9 C 17,2 C 48 % 0 lf 1017,1 hPa 0,0 l/m 2 min 0 min 295 W/m 15,8 km/h (3 Bft) 97,87 %
03.05.2018 17:40 17,6 C 18,3 C 17,2 C 48 % 0 lf 1017,1 hPa 0,0 l/m 2 min 0 min 377 W/m 20,3 km/h (4 Bft) 97,83 %
03.05.2018 17:42 17,5 C 18,9 C 17,2 C 48 % 0 lf 1017,2 hPa 0,0 l/m 2 min 0 min 499 W/m 13,5 km/h (3 Bft) 97,87 %
03.05.2018 17:44 17,5 C 19,4 C 17,8 C 49 % 0 lf 1017,1 hPa 0,0 l/m 2 min 0 min 576 W/m 13,5 km/h (3 Bft) 97,87 %
03.05.2018 17:46 17,6 C 19,4 C 18,3 C 49 % 0 lf 1017,3 hPa 0,0 l/m 2 min 0 min 504 W/m 18,0 km/h (3 Bft) 95,74 %
03.05.2018 17:48 17,6 C 18,9 C 18,3 C 49 % 0 lf 1017,2 hPa 0,0 l/m 2 min 0 min 418 W/m 18,0 km/h (3 Bft) 97,87 %
03.05.2018 17:50 17,6 C 18,3 C 17,8 C 48 % 0 lf 1017,3 hPa 0,0 l/m 2 min 0 min 375 W/m 18,0 km/h (3 Bft) 97,87 %
03.05.2018 17:52 17,5 C 18,3 C 17,8 C 48 % 0 lf 1017,3 hPa 0,0 l/m 2 min 0 min 344 W/m 18,0 km/h (3 Bft) 100,00 %
03.05.2018 17:54 17,5 C 18,3 C 17,2 C 48 % 0 lf 1017,2 hPa 0,0 l/m 2 min 0 min 286 W/m 18,0 km/h (3 Bft) 97,87 %
03.05.2018 17:56 17,5 C 18,3 C 17,8 C 50 % 0 lf 1017,2 hPa 0,0 l/m 2 min 0 min 255 W/m 22,5 km/h (4 Bft) 100,00 %
03.05.2018 17:58 17,4 C 18,3 C 17,8 C 49 % 0 lf 1017,2 hPa 0,0 l/m 2 min 0 min 265 W/m 20,3 km/h (4 Bft) 97,87 %
03.05.2018 18:00 17,4 C 17,8 C 17,2 C 48 % 0 lf 1017,2 hPa 0,0 l/m 2 min 0 min 327 W/m 20,3 km/h (4 Bft) 97,87 %
03.05.2018 18:02 17,4 C 17,8 C 17,8 C 49 % 0 lf 1017,2 hPa 0,0 l/m 2 min 0 min 377 W/m 15,8 km/h (3 Bft) 100,00 %
03.05.2018 18:04 17,3 C 18,3 C 17,8 C 49 % 0 lf 1017,3 hPa 0,0 l/m 2 min 0 min 319 W/m 24,8 km/h (4 Bft) 100,00 %
03.05.2018 18:06 17,3 C 17,8 C 16,7 C 48 % 0 lf 1017,3 hPa 0,0 l/m 2 min 0 min 228 W/m 20,3 km/h (4 Bft) 100,00 %
03.05.2018 18:08 17,2 C 17,8 C 16,7 C 50 % 0 lf 1017,3 hPa 0,0 l/m 2 min 0 min 295 W/m 22,5 km/h (4 Bft) 100,00 %
03.05.2018 18:10 17,2 C 17,8 C 17,2 C 49 % 0 lf 1017,3 hPa 0,0 l/m 2 min 0 min 355 W/m 20,3 km/h (4 Bft) 100,00 %
03.05.2018 18:12 17,2 C 17,8 C 17,2 C 49 % 0 lf 1017,3 hPa 0,0 l/m 2 min 0 min 339 W/m 22,5 km/h (4 Bft) 100,00 %
03.05.2018 18:14 17,2 C 17,8 C 16,7 C 49 % 0 lf 1017,3 hPa 0,0 l/m 2 min 0 min 403 W/m 18,0 km/h (3 Bft) 100,00 %
03.05.2018 18:16 17,2 C 17,8 C 16,7 C 49 % 0 lf 1017,3 hPa 0,0 l/m 2 min 0 min 429 W/m 22,5 km/h (4 Bft) 93,62 %
03.05.2018 18:18 17,1 C 17,2 C 16,1 C 48 % 0 lf 1017,4 hPa 0,0 l/m 2 min 0 min 353 W/m 22,5 km/h (4 Bft) 100,00 %
03.05.2018 18:20 17,1 C 17,2 C 16,1 C 49 % 0 lf 1017,4 hPa 0,0 l/m 2 min 0 min 338 W/m 20,3 km/h (4 Bft) 97,87 %
03.05.2018 18:22 17,0 C 17,2 C 16,1 C 50 % 0 lf 1017,3 hPa 0,0 l/m 2 min 0 min 312 W/m 18,0 km/h (3 Bft) 97,87 %
03.05.2018 18:24 17,0 C 17,2 C 16,7 C 50 % 0 lf 1017,3 hPa 0,0 l/m 2 min 0 min 267 W/m 20,3 km/h (4 Bft) 97,87 %
03.05.2018 18:26 17,0 C 17,2 C 16,1 C 49 % 0 lf 1017,4 hPa 0,0 l/m 2 min 0 min 197 W/m 18,0 km/h (3 Bft) 95,65 %
03.05.2018 18:28 16,9 C 17,2 C 16,1 C 50 % 0 lf 1017,4 hPa 0,0 l/m 2 min 0 min 213 W/m 20,3 km/h (4 Bft) 97,87 %
03.05.2018 18:30 16,9 C 17,2 C 16,1 C 50 % 0 lf 1017,4 hPa 0,0 l/m 2 min 0 min 279 W/m 18,0 km/h (3 Bft) 97,87 %
03.05.2018 18:32 16,9 C 17,2 C 16,1 C 49 % 0 lf 1017,4 hPa 0,0 l/m 2 min 0 min 296 W/m 18,0 km/h (3 Bft) 95,74 %
03.05.2018 18:34 16,9 C 17,2 C 16,1 C 49 % 0 lf 1017,3 hPa 0,0 l/m 2 min 0 min 277 W/m 13,5 km/h (3 Bft) 95,74 %
03.05.2018 18:36 16,9 C 17,2 C 16,1 C 49 % 0 lf 1017,3 hPa 0,0 l/m 2 min 0 min 225 W/m 9,0 km/h (2 Bft) 93,62 %
03.05.2018 18:38 16,9 C 17,2 C 16,7 C 50 % 0 lf 1017,3 hPa 0,0 l/m 2 min 0 min 183 W/m 13,5 km/h (3 Bft) 97,83 %
03.05.2018 18:40 17,0 C 17,2 C 16,1 C 49 % 0 lf 1017,3 hPa 0,0 l/m 2 min 0 min 211 W/m 13,5 km/h (3 Bft) 95,74 %
03.05.2018 18:42 17,0 C 17,2 C 16,1 C 49 % 0 lf 1017,4 hPa 0,0 l/m 2 min 0 min 269 W/m 20,3 km/h (4 Bft) 97,87 %
03.05.2018 18:44 17,1 C 17,2 C 16,1 C 49 % 0 lf 1017,4 hPa 0,0 l/m 2 min 0 min 287 W/m 18,0 km/h (3 Bft) 97,87 %
03.05.2018 18:46 17,1 C 17,2 C 15,6 C 49 % 0 lf 1017,4 hPa 0,0 l/m 2 min 0 min 287 W/m 13,5 km/h (3 Bft) 97,87 %
03.05.2018 18:48 17,1 C 17,2 C 15,6 C 49 % 0 lf 1017,4 hPa 0,0 l/m 2 min 0 min 250 W/m 11,3 km/h (2 Bft) 97,87 %
03.05.2018 18:50 17,1 C 17,8 C 16,1 C 49 % 0 lf 1017,4 hPa 0,0 l/m 2 min 0 min 280 W/m 15,8 km/h (3 Bft) 97,83 %
03.05.2018 18:52 17,1 C 17,2 C 16,1 C 49 % 0 lf 1017,4 hPa 0,0 l/m 2 min 0 min 205 W/m 18,0 km/h (3 Bft) 92,59 %
03.05.2018 18:54 17,1 C 17,2 C 15,6 C 49 % 0 lf 1017,4 hPa 0,0 l/m 0 min 0 min 142 W/m 13,5 km/h (3 Bft) 95,65 %
03.05.2018 18:56 17,1 C 17,2 C 15,0 C 48 % 0 lf 1017,5 hPa 0,0 l/m 2 min 0 min 151 W/m 11,3 km/h (2 Bft) 95,74 %
03.05.2018 18:58 17,1 C 16,7 C 15,0 C 48 % 0 lf 1017,5 hPa 0,0 l/m 0 min 0 min 124 W/m 13,5 km/h (3 Bft) 97,87 %
03.05.2018 19:00 17,1 C 16,7 C 15,0 C 49 % 0 lf 1017,4 hPa 0,0 l/m 2 min 0 min 159 W/m 20,3 km/h (4 Bft) 95,74 %
03.05.2018 19:02 17,1 C 16,7 C 15,0 C 49 % 0 lf 1017,5 hPa 0,0 l/m 2 min 0 min 144 W/m 20,3 km/h (4 Bft) 95,74 %
03.05.2018 19:04 17,0 C 16,7 C 15,0 C 49 % 0 lf 1017,5 hPa 0,0 l/m 2 min 0 min 166 W/m 20,3 km/h (4 Bft) 93,48 %
03.05.2018 19:06 16,9 C 16,1 C 15,0 C 48 % 0 lf 1017,5 hPa 0,0 l/m 2 min 0 min 167 W/m 20,3 km/h (4 Bft) 91,49 %
03.05.2018 19:08 16,9 C 16,1 C 14,4 C 47 % 0 lf 1017,5 hPa 0,0 l/m 2 min 0 min 147 W/m 15,8 km/h (3 Bft) 95,74 %
03.05.2018 19:10 16,8 C 16,1 C 14,4 C 48 % 0 lf 1017,6 hPa 0,0 l/m 2 min 0 min 160 W/m 13,5 km/h (3 Bft) 95,74 %
03.05.2018 19:12 16,7 C 16,1 C 14,4 C 48 % 0 lf 1017,6 hPa 0,0 l/m 2 min 0 min 200 W/m 18,0 km/h (3 Bft) 100,00 %
03.05.2018 19:14 16,6 C 16,1 C 14,4 C 48 % 0 lf 1017,6 hPa 0,0 l/m 2 min 0 min 207 W/m 13,5 km/h (3 Bft) 97,87 %
03.05.2018 19:16 16,6 C 16,7 C 14,4 C 48 % 0 lf 1017,7 hPa 0,0 l/m 2 min 0 min 202 W/m 11,3 km/h (2 Bft) 97,83 %
03.05.2018 19:18 16,6 C 16,7 C 15,0 C 48 % 0 lf 1017,7 hPa 0,0 l/m 2 min 0 min 198 W/m 13,5 km/h (3 Bft) 97,87 %
03.05.2018 19:20 16,5 C 16,7 C 15,0 C 48 % 0 lf 1017,7 hPa 0,0 l/m 2 min 0 min 185 W/m 13,5 km/h (3 Bft) 95,74 %
03.05.2018 19:22 16,5 C 16,7 C 14,4 C 47 % 0 lf 1017,7 hPa 0,0 l/m 2 min 0 min 160 W/m 13,5 km/h (3 Bft) 91,49 %
03.05.2018 19:24 16,5 C 16,7 C 14,4 C 48 % 0 lf 1017,7 hPa 0,0 l/m 2 min 0 min 116 W/m 13,5 km/h (3 Bft) 97,87 %
03.05.2018 19:26 16,4 C 16,1 C 14,4 C 48 % 0 lf 1017,6 hPa 0,0 l/m 2 min 0 min 124 W/m 9,0 km/h (2 Bft) 97,96 %
03.05.2018 19:28 16,4 C 16,1 C 14,4 C 48 % 0 lf 1017,7 hPa 0,0 l/m 2 min 0 min 151 W/m 13,5 km/h (3 Bft) 97,87 %
03.05.2018 19:30 16,4 C 16,1 C 14,4 C 49 % 0 lf 1017,7 hPa 0,0 l/m 2 min 0 min 149 W/m 13,5 km/h (3 Bft) 97,87 %
03.05.2018 19:32 16,4 C 16,1 C 14,4 C 48 % 0 lf 1017,7 hPa 0,0 l/m 2 min 0 min 146 W/m 11,3 km/h (2 Bft) 95,74 %
03.05.2018 19:34 16,4 C 16,1 C 14,4 C 48 % 0 lf 1017,7 hPa 0,0 l/m 2 min 0 min 142 W/m 9,0 km/h (2 Bft) 97,87 %
03.05.2018 19:36 16,4 C 16,1 C 14,4 C 48 % 0 lf 1017,8 hPa 0,0 l/m 2 min 0 min 136 W/m 9,0 km/h (2 Bft) 97,87 %
03.05.2018 19:38 16,4 C 16,7 C 15,0 C 49 % 0 lf 1017,8 hPa 0,0 l/m 2 min 0 min 127 W/m 15,8 km/h (3 Bft) 97,87 %
03.05.2018 19:40 16,4 C 16,7 C 15,0 C 49 % 0 lf 1017,8 hPa 0,0 l/m 2 min 0 min 123 W/m 13,5 km/h (3 Bft) 94,59 %
03.05.2018 19:42 16,4 C 16,1 C 16,1 C 49 % 0 lf 1017,9 hPa 0,0 l/m 2 min 0 min 118 W/m 15,8 km/h (3 Bft) 100,00 %
03.05.2018 19:44 16,4 C 16,1 C 16,7 C 49 % 0 lf 1017,9 hPa 0,0 l/m 2 min 0 min 114 W/m 18,0 km/h (3 Bft) 97,87 %
03.05.2018 19:46 16,5 C 16,1 C 16,7 C 49 % 0 lf 1017,9 hPa 0,0 l/m 2 min 0 min 110 W/m 15,8 km/h (3 Bft) 95,74 %
03.05.2018 19:48 16,5 C 16,1 C 16,7 C 50 % 0 lf 1018,0 hPa 0,0 l/m 2 min 0 min 105 W/m 13,5 km/h (3 Bft) 97,83 %
03.05.2018 19:50 16,4 C 16,1 C 16,7 C 50 % 0 lf 1018,0 hPa 0,0 l/m 2 min 0 min 99 W/m 13,5 km/h (3 Bft) 95,74 %
03.05.2018 19:52 16,4 C 16,1 C 16,7 C 50 % 0 lf 1018,0 hPa 0,0 l/m 2 min 0 min 94 W/m 13,5 km/h (3 Bft) 95,74 %
03.05.2018 19:54 16,3 C 15,6 C 16,1 C 50 % 0 lf 1018,0 hPa 0,0 l/m 2 min 0 min 88 W/m 18,0 km/h (3 Bft) 98,11 %
03.05.2018 19:56 16,3 C 15,6 C 15,6 C 50 % 0 lf 1018,0 hPa 0,0 l/m 2 min 0 min 83 W/m 11,3 km/h (2 Bft) 97,87 %
03.05.2018 19:58 16,3 C 15,6 C 15,0 C 50 % 0 lf 1017,9 hPa 0,0 l/m 2 min 0 min 79 W/m 13,5 km/h (3 Bft) 93,62 %
03.05.2018 20:00 16,2 C 15,6 C 14,4 C 49 % 0 lf 1018,0 hPa 0,0 l/m 2 min 0 min 76 W/m 13,5 km/h (3 Bft) 97,87 %
03.05.2018 20:02 16,2 C 15,6 C 13,9 C 49 % 0 lf 1018,2 hPa 0,0 l/m 2 min 0 min 71 W/m 13,5 km/h (3 Bft) 95,74 %
03.05.2018 20:04 16,2 C 15,0 C 13,9 C 50 % 0 lf 1018,2 hPa 0,0 l/m 2 min 0 min 67 W/m 11,3 km/h (2 Bft) 97,83 %
03.05.2018 20:06 16,1 C 15,0 C 13,9 C 50 % 0 lf 1018,2 hPa 0,0 l/m 2 min 0 min 63 W/m 9,0 km/h (2 Bft) 95,74 %
03.05.2018 20:08 16,1 C 15,0 C 13,3 C 50 % 0 lf 1018,3 hPa 0,0 l/m 2 min 0 min 61 W/m 11,3 km/h (2 Bft) 93,62 %
03.05.2018 20:10 16,0 C 15,0 C 13,3 C 50 % 0 lf 1018,4 hPa 0,0 l/m 2 min 0 min 56 W/m 13,5 km/h (3 Bft) 95,74 %
03.05.2018 20:12 15,9 C 14,4 C 13,3 C 50 % 0 lf 1018,4 hPa 0,0 l/m 2 min 0 min 52 W/m 13,5 km/h (3 Bft) 95,74 %
03.05.2018 20:14 15,9 C 14,4 C 13,3 C 50 % 0 lf 1018,4 hPa 0,0 l/m 2 min 0 min 49 W/m 15,8 km/h (3 Bft) 95,65 %
03.05.2018 20:16 15,8 C 14,4 C 13,3 C 51 % 0 lf 1018,4 hPa 0,0 l/m 0 min 0 min 46 W/m 9,0 km/h (2 Bft) 93,62 %
03.05.2018 20:18 15,8 C 14,4 C 13,3 C 51 % 0 lf 1018,5 hPa 0,0 l/m 0 min 0 min 41 W/m 13,5 km/h (3 Bft) 93,62 %
03.05.2018 20:20 15,7 C 14,4 C 13,3 C 51 % 0 lf 1018,4 hPa 0,0 l/m 0 min 0 min 37 W/m 9,0 km/h (2 Bft) 97,87 %
03.05.2018 20:22 15,6 C 14,4 C 12,8 C 51 % 0 lf 1018,4 hPa 0,0 l/m 0 min 0 min 33 W/m 11,3 km/h (2 Bft) 95,83 %
03.05.2018 20:24 15,6 C 13,9 C 12,8 C 52 % 0 lf 1018,4 hPa 0,0 l/m 0 min 0 min 33 W/m 11,3 km/h (2 Bft) 97,87 %
03.05.2018 20:26 15,5 C 13,9 C 12,8 C 52 % 0 lf 1018,4 hPa 0,0 l/m 0 min 0 min 31 W/m 11,3 km/h (2 Bft) 97,83 %
03.05.2018 20:28 15,4 C 13,9 C 12,8 C 52 % 0 lf 1018,4 hPa 0,0 l/m 0 min 0 min 30 W/m 9,0 km/h (2 Bft) 95,74 %
03.05.2018 20:30 15,3 C 13,9 C 12,2 C 52 % 0 lf 1018,5 hPa 0,0 l/m 0 min 0 min 28 W/m 9,0 km/h (2 Bft) 95,74 %
03.05.2018 20:32 15,3 C 13,3 C 12,2 C 53 % 0 lf 1018,5 hPa 0,0 l/m 0 min 0 min 26 W/m 11,3 km/h (2 Bft) 93,62 %
03.05.2018 20:34 15,2 C 13,3 C 12,2 C 53 % 0 lf 1018,5 hPa 0,0 l/m 2 min 0 min 25 W/m 11,3 km/h (2 Bft) 97,87 %
03.05.2018 20:36 15,2 C 13,3 C 12,2 C 53 % 0 lf 1018,5 hPa 0,0 l/m 2 min 0 min 23 W/m 9,0 km/h (2 Bft) 95,74 %
03.05.2018 20:38 15,1 C 13,3 C 12,2 C 53 % 0 lf 1018,6 hPa 0,0 l/m 2 min 0 min 22 W/m 9,0 km/h (2 Bft) 95,65 %
03.05.2018 20:40 15,0 C 13,3 C 12,2 C 54 % 0 lf 1018,6 hPa 0,0 l/m 2 min 0 min 20 W/m 9,0 km/h (2 Bft) 97,87 %
03.05.2018 20:42 14,9 C 13,3 C 11,7 C 54 % 0 lf 1018,6 hPa 0,0 l/m 0 min 0 min 19 W/m 9,0 km/h (2 Bft) 93,62 %
03.05.2018 20:44 14,9 C 12,8 C 11,7 C 54 % 0 lf 1018,6 hPa 0,0 l/m 0 min 0 min 18 W/m 6,8 km/h (2 Bft) 97,87 %
03.05.2018 20:46 14,8 C 12,8 C 11,7 C 55 % 0 lf 1018,6 hPa 0,0 l/m 0 min 0 min 16 W/m 6,8 km/h (2 Bft) 97,37 %
03.05.2018 20:48 14,8 C 12,8 C 11,7 C 55 % 0 lf 1018,7 hPa 0,0 l/m 0 min 0 min 14 W/m 9,0 km/h (2 Bft) 93,62 %
03.05.2018 20:50 14,7 C 12,8 C 11,1 C 55 % 0 lf 1018,7 hPa 0,0 l/m 0 min 0 min 13 W/m 11,3 km/h (2 Bft) 96,55 %
03.05.2018 20:52 14,7 C 12,8 C 11,1 C 55 % 0 lf 1018,8 hPa 0,0 l/m 0 min 0 min 12 W/m 6,8 km/h (2 Bft) 94,44 %
03.05.2018 20:54 14,6 C 12,2 C 11,1 C 56 % 0 lf 1018,8 hPa 0,0 l/m 0 min 0 min 11 W/m 9,0 km/h (2 Bft) 97,87 %
03.05.2018 20:56 14,6 C 12,2 C 11,1 C 56 % 0 lf 1018,8 hPa 0,0 l/m 0 min 0 min 9 W/m 9,0 km/h (2 Bft) 97,87 %
03.05.2018 20:58 14,5 C 12,2 C 11,1 C 56 % 0 lf 1018,9 hPa 0,0 l/m 0 min 0 min 9 W/m 6,8 km/h (2 Bft) 95,74 %
03.05.2018 21:00 14,4 C 12,2 C 11,1 C 56 % 0 lf 1018,9 hPa 0,0 l/m 0 min 0 min 7 W/m 6,8 km/h (2 Bft) 95,74 %
03.05.2018 21:02 14,3 C 12,2 C 10,6 C 57 % 0 lf 1018,9 hPa 0,0 l/m 0 min 0 min 7 W/m 6,8 km/h (2 Bft) 93,62 %
03.05.2018 21:04 14,3 C 12,2 C 10,6 C 57 % 0 lf 1018,9 hPa 0,0 l/m 0 min 0 min 5 W/m 6,8 km/h (2 Bft) 95,65 %
03.05.2018 21:06 14,2 C 12,2 C 10,6 C 57 % 0 lf 1019,0 hPa 0,0 l/m 0 min 0 min 5 W/m 9,0 km/h (2 Bft) 93,62 %
03.05.2018 21:08 14,2 C 12,2 C 10,6 C 57 % 0 lf 1018,9 hPa 0,0 l/m 0 min 0 min 4 W/m 6,8 km/h (2 Bft) 95,74 %
03.05.2018 21:10 14,2 C 11,7 C 10,6 C 58 % 0 lf 1018,9 hPa 0,0 l/m 0 min 0 min 0 W/m 6,8 km/h (2 Bft) 95,74 %
03.05.2018 21:12 14,2 C 11,7 C 10,6 C 58 % 0 lf 1018,9 hPa 0,0 l/m 0 min 0 min 0 W/m 4,5 km/h (1 Bft) 91,49 %
03.05.2018 21:14 14,1 C 11,7 C 10,0 C 58 % 0 lf 1018,9 hPa 0,0 l/m 0 min 0 min 0 W/m 6,8 km/h (2 Bft) 93,62 %
03.05.2018 21:16 14,0 C 11,7 C 10,0 C 58 % 0 lf 1019,0 hPa 0,0 l/m 0 min 0 min 0 W/m 6,8 km/h (2 Bft) 97,83 %
03.05.2018 21:18 13,9 C 11,7 C 10,0 C 59 % 0 lf 1019,0 hPa 0,0 l/m 0 min 0 min 0 W/m 6,8 km/h (2 Bft) 93,62 %
03.05.2018 21:20 13,9 C 11,7 C 10,0 C 59 % 0 lf 1019,1 hPa 0,0 l/m 0 min 0 min 0 W/m 11,3 km/h (2 Bft) 93,62 %
03.05.2018 21:22 13,8 C 11,7 C 10,0 C 59 % 0 lf 1019,2 hPa 0,0 l/m 0 min 0 min 0 W/m 9,0 km/h (2 Bft) 91,49 %
03.05.2018 21:24 13,8 C 11,7 C 10,0 C 60 % 0 lf 1019,3 hPa 0,0 l/m 0 min 0 min 0 W/m 4,5 km/h (1 Bft) 95,83 %
03.05.2018 21:26 13,7 C 11,1 C 10,0 C 60 % 0 lf 1019,3 hPa 0,0 l/m 0 min 0 min 0 W/m 6,8 km/h (2 Bft) 93,62 %
03.05.2018 21:28 13,7 C 11,1 C 9,4 C 60 % 0 lf 1019,3 hPa 0,0 l/m 0 min 0 min 0 W/m 6,8 km/h (2 Bft) 93,62 %
03.05.2018 21:30 13,6 C 11,1 C 9,4 C 60 % 0 lf 1019,4 hPa 0,0 l/m 0 min 0 min 0 W/m 6,8 km/h (2 Bft) 93,62 %
03.05.2018 21:32 13,6 C 11,1 C 9,4 C 61 % 0 lf 1019,4 hPa 0,0 l/m 0 min 0 min 0 W/m 6,8 km/h (2 Bft) 95,74 %
03.05.2018 21:34 13,5 C 11,1 C 9,4 C 61 % 0 lf 1019,4 hPa 0,0 l/m 0 min 0 min 0 W/m 6,8 km/h (2 Bft) 95,74 %
03.05.2018 21:36 13,4 C 11,1 C 9,4 C 61 % 0 lf 1019,4 hPa 0,0 l/m 0 min 0 min 0 W/m 4,5 km/h (1 Bft) 95,74 %
03.05.2018 21:38 13,3 C 11,1 C 9,4 C 62 % 0 lf 1019,4 hPa 0,0 l/m 0 min 0 min 0 W/m 6,8 km/h (2 Bft) 95,74 %
03.05.2018 21:40 13,3 C 10,6 C 8,9 C 62 % 0 lf 1019,4 hPa 0,0 l/m 0 min 0 min 0 W/m 6,8 km/h (2 Bft) 97,87 %
03.05.2018 21:42 13,2 C 10,6 C 8,9 C 62 % 0 lf 1019,4 hPa 0,0 l/m 0 min 0 min 0 W/m 6,8 km/h (2 Bft) 97,87 %
03.05.2018 21:44 13,2 C 10,6 C 8,9 C 62 % 0 lf 1019,5 hPa 0,0 l/m 0 min 0 min 0 W/m 6,8 km/h (2 Bft) 97,83 %
03.05.2018 21:46 13,1 C 10,6 C 8,9 C 62 % 0 lf 1019,5 hPa 0,0 l/m 0 min 0 min 0 W/m 6,8 km/h (2 Bft) 95,74 %
03.05.2018 21:48 13,1 C 10,6 C 8,9 C 62 % 0 lf 1019,5 hPa 0,0 l/m 0 min 0 min 0 W/m 6,8 km/h (2 Bft) 97,87 %
03.05.2018 21:50 13,0 C 10,6 C 8,9 C 63 % 0 lf 1019,6 hPa 0,0 l/m 0 min 0 min 0 W/m 6,8 km/h (2 Bft) 97,87 %
03.05.2018 21:52 12,9 C 10,6 C 8,9 C 63 % 0 lf 1019,6 hPa 0,0 l/m 0 min 0 min 0 W/m 9,0 km/h (2 Bft) 100,00 %
03.05.2018 21:54 12,9 C 10,6 C 8,9 C 63 % 0 lf 1019,6 hPa 0,0 l/m 0 min 0 min 0 W/m 9,0 km/h (2 Bft) 95,74 %
03.05.2018 21:56 12,8 C 10,6 C 9,4 C 64 % 0 lf 1019,6 hPa 0,0 l/m 0 min 0 min 0 W/m 9,0 km/h (2 Bft) 100,00 %
03.05.2018 21:58 12,8 C 10,6 C 9,4 C 64 % 0 lf 1019,6 hPa 0,0 l/m 0 min 0 min 0 W/m 9,0 km/h (2 Bft) 100,00 %
03.05.2018 22:00 12,7 C 10,6 C 9,4 C 64 % 0 lf 1019,6 hPa 0,0 l/m 0 min 0 min 0 W/m 6,8 km/h (2 Bft) 100,00 %
03.05.2018 22:02 12,7 C 10,6 C 9,4 C 64 % 0 lf 1019,6 hPa 0,0 l/m 0 min 0 min 0 W/m 9,0 km/h (2 Bft) 95,74 %
03.05.2018 22:04 12,6 C 10,6 C 9,4 C 65 % 0 lf 1019,6 hPa 0,0 l/m 0 min 0 min 0 W/m 11,3 km/h (2 Bft) 100,00 %
03.05.2018 22:06 12,6 C 11,1 C 9,4 C 65 % 0 lf 1019,7 hPa 0,0 l/m 0 min 0 min 0 W/m 9,0 km/h (2 Bft) 100,00 %
03.05.2018 22:08 12,5 C 11,1 C 10,0 C 65 % 0 lf 1019,7 hPa 0,0 l/m 0 min 0 min 0 W/m 9,0 km/h (2 Bft) 97,83 %
03.05.2018 22:10 12,4 C 11,1 C 10,0 C 65 % 0 lf 1019,7 hPa 0,0 l/m 0 min 0 min 0 W/m 9,0 km/h (2 Bft) 100,00 %
03.05.2018 22:12 12,4 C 11,1 C 10,0 C 65 % 0 lf 1019,7 hPa 0,0 l/m 0 min 0 min 0 W/m 9,0 km/h (2 Bft) 100,00 %
03.05.2018 22:14 12,4 C 11,1 C 10,0 C 65 % 0 lf 1019,7 hPa 0,0 l/m 0 min 0 min 0 W/m 13,5 km/h (3 Bft) 97,87 %
03.05.2018 22:16 12,3 C 11,1 C 9,4 C 65 % 0 lf 1019,7 hPa 0,0 l/m 0 min 0 min 0 W/m 6,8 km/h (2 Bft) 100,00 %
03.05.2018 22:18 12,3 C 10,6 C 9,4 C 65 % 0 lf 1019,7 hPa 0,0 l/m 0 min 0 min 0 W/m 11,3 km/h (2 Bft) 100,00 %
03.05.2018 22:20 12,3 C 10,6 C 9,4 C 66 % 0 lf 1019,7 hPa 0,0 l/m 0 min 0 min 0 W/m 9,0 km/h (2 Bft) 100,00 %
03.05.2018 22:22 12,2 C 10,6 C 9,4 C 66 % 0 lf 1019,7 hPa 0,0 l/m 0 min 0 min 0 W/m 11,3 km/h (2 Bft) 97,87 %
03.05.2018 22:24 12,2 C 10,6 C 9,4 C 66 % 0 lf 1019,7 hPa 0,0 l/m 0 min 0 min 0 W/m 11,3 km/h (2 Bft) 100,00 %
03.05.2018 22:26 12,2 C 10,6 C 9,4 C 66 % 0 lf 1019,7 hPa 0,0 l/m 0 min 0 min 0 W/m 6,8 km/h (2 Bft) 100,00 %
03.05.2018 22:28 12,1 C 10,6 C 9,4 C 66 % 0 lf 1019,8 hPa 0,0 l/m 0 min 0 min 0 W/m 9,0 km/h (2 Bft) 100,00 %
03.05.2018 22:30 12,1 C 10,6 C 9,4 C 66 % 0 lf 1019,8 hPa 0,0 l/m 0 min 0 min 0 W/m 9,0 km/h (2 Bft) 97,87 %
03.05.2018 22:32 12,1 C 10,6 C 9,4 C 66 % 0 lf 1019,9 hPa 0,0 l/m 0 min 0 min 0 W/m 6,8 km/h (2 Bft) 95,74 %
03.05.2018 22:34 12,0 C 10,6 C 8,9 C 66 % 0 lf 1019,8 hPa 0,0 l/m 0 min 0 min 0 W/m 6,8 km/h (2 Bft) 100,00 %
03.05.2018 22:36 12,0 C 10,0 C 8,9 C 66 % 0 lf 1019,9 hPa 0,0 l/m 0 min 0 min 0 W/m 4,5 km/h (1 Bft) 100,00 %
03.05.2018 22:38 12,0 C 10,0 C 8,9 C 67 % 0 lf 1019,8 hPa 0,0 l/m 0 min 0 min 0 W/m 6,8 km/h (2 Bft) 100,00 %
03.05.2018 22:40 11,9 C 10,0 C 8,3 C 67 % 0 lf 1019,8 hPa 0,0 l/m 0 min 0 min 0 W/m 6,8 km/h (2 Bft) 97,87 %
03.05.2018 22:42 11,9 C 10,0 C 8,3 C 67 % 0 lf 1019,8 hPa 0,0 l/m 0 min 0 min 0 W/m 4,5 km/h (1 Bft) 97,87 %
03.05.2018 22:44 11,9 C 10,0 C 8,3 C 67 % 0 lf 1019,8 hPa 0,0 l/m 0 min 0 min 0 W/m 4,5 km/h (1 Bft) 100,00 %
03.05.2018 22:46 11,8 C 9,4 C 7,8 C 67 % 0 lf 1019,8 hPa 0,0 l/m 0 min 0 min 0 W/m 6,8 km/h (2 Bft) 97,87 %
03.05.2018 22:48 11,8 C 9,4 C 7,8 C 67 % 0 lf 1019,9 hPa 0,0 l/m 0 min 0 min 0 W/m 6,8 km/h (2 Bft) 100,00 %
03.05.2018 22:50 11,8 C 9,4 C 7,8 C 67 % 0 lf 1019,8 hPa 0,0 l/m 0 min 0 min 0 W/m 6,8 km/h (2 Bft) 97,87 %
03.05.2018 22:52 11,7 C 9,4 C 7,8 C 67 % 0 lf 1019,9 hPa 0,0 l/m 0 min 0 min 0 W/m 6,8 km/h (2 Bft) 97,87 %
03.05.2018 22:54 11,7 C 9,4 C 7,8 C 67 % 0 lf 1019,9 hPa 0,0 l/m 0 min 0 min 0 W/m 6,8 km/h (2 Bft) 95,92 %
03.05.2018 22:56 11,7 C 9,4 C 7,8 C 68 % 0 lf 1019,9 hPa 0,0 l/m 0 min 0 min 0 W/m 6,8 km/h (2 Bft) 93,62 %
03.05.2018 22:58 11,6 C 9,4 C 7,8 C 68 % 0 lf 1019,9 hPa 0,0 l/m 0 min 0 min 0 W/m 9,0 km/h (2 Bft) 93,62 %
03.05.2018 23:00 11,6 C 9,4 C 7,8 C 68 % 0 lf 1019,9 hPa 0,0 l/m 0 min 0 min 0 W/m 6,8 km/h (2 Bft) 95,74 %
03.05.2018 23:02 11,5 C 9,4 C 7,8 C 68 % 0 lf 1019,9 hPa 0,0 l/m 0 min 0 min 0 W/m 6,8 km/h (2 Bft) 95,74 %
03.05.2018 23:04 11,4 C 9,4 C 7,8 C 68 % 0 lf 1019,9 hPa 0,0 l/m 0 min 0 min 0 W/m 6,8 km/h (2 Bft) 91,49 %
03.05.2018 23:06 11,4 C 9,4 C 7,8 C 68 % 0 lf 1019,9 hPa 0,0 l/m 0 min 0 min 0 W/m 6,8 km/h (2 Bft) 91,30 %
03.05.2018 23:08 11,4 C 9,4 C 7,8 C 68 % 0 lf 1019,9 hPa 0,0 l/m 0 min 0 min 0 W/m 4,5 km/h (1 Bft) 95,74 %
03.05.2018 23:10 11,3 C 8,9 C 7,8 C 68 % 0 lf 1019,9 hPa 0,0 l/m 0 min 0 min 0 W/m 4,5 km/h (1 Bft) 95,74 %
03.05.2018 23:12 11,3 C 8,9 C 7,8 C 69 % 0 lf 1019,9 hPa 0,0 l/m 0 min 0 min 0 W/m 9,0 km/h (2 Bft) 93,62 %
03.05.2018 23:14 11,2 C 8,9 C 7,8 C 69 % 0 lf 1019,9 hPa 0,0 l/m 0 min 0 min 0 W/m 9,0 km/h (2 Bft) 91,49 %
03.05.2018 23:16 11,2 C 9,4 C 7,8 C 69 % 0 lf 1019,8 hPa 0,0 l/m 0 min 0 min 0 W/m 6,8 km/h (2 Bft) 93,62 %
03.05.2018 23:18 11,2 C 9,4 C 7,8 C 69 % 0 lf 1019,9 hPa 0,0 l/m 0 min 0 min 0 W/m 11,3 km/h (2 Bft) 93,48 %
03.05.2018 23:20 11,1 C 9,4 C 7,8 C 69 % 0 lf 1019,9 hPa 0,0 l/m 0 min 0 min 0 W/m 11,3 km/h (2 Bft) 91,49 %
03.05.2018 23:22 11,1 C 9,4 C 8,3 C 69 % 0 lf 1019,9 hPa 0,0 l/m 0 min 0 min 0 W/m 15,8 km/h (3 Bft) 95,74 %
03.05.2018 23:24 11,0 C 9,4 C 8,3 C 69 % 0 lf 1019,9 hPa 0,0 l/m 0 min 0 min 0 W/m 11,3 km/h (2 Bft) 93,62 %
03.05.2018 23:26 10,9 C 9,4 C 8,3 C 69 % 0 lf 1019,9 hPa 0,0 l/m 0 min 0 min 0 W/m 9,0 km/h (2 Bft) 93,62 %
03.05.2018 23:28 10,9 C 9,4 C 8,3 C 69 % 0 lf 1019,9 hPa 0,0 l/m 0 min 0 min 0 W/m 9,0 km/h (2 Bft) 93,62 %
03.05.2018 23:30 10,8 C 9,4 C 8,3 C 69 % 0 lf 1020,0 hPa 0,0 l/m 0 min 0 min 0 W/m 6,8 km/h (2 Bft) 93,48 %
03.05.2018 23:32 10,8 C 9,4 C 8,3 C 69 % 0 lf 1020,0 hPa 0,0 l/m 0 min 0 min 0 W/m 9,0 km/h (2 Bft) 95,74 %
03.05.2018 23:34 10,8 C 9,4 C 8,3 C 69 % 0 lf 1020,0 hPa 0,0 l/m 0 min 0 min 0 W/m 6,8 km/h (2 Bft) 95,74 %
03.05.2018 23:36 10,8 C 9,4 C 8,3 C 69 % 0 lf 1020,0 hPa 0,0 l/m 0 min 0 min 0 W/m 9,0 km/h (2 Bft) 93,62 %
03.05.2018 23:38 10,7 C 9,4 C 8,3 C 69 % 0 lf 1020,0 hPa 0,0 l/m 0 min 0 min 0 W/m 11,3 km/h (2 Bft) 95,74 %
03.05.2018 23:40 10,7 C 9,4 C 8,3 C 69 % 0 lf 1020,0 hPa 0,0 l/m 0 min 0 min 0 W/m 11,3 km/h (2 Bft) 91,49 %
03.05.2018 23:42 10,7 C 9,4 C 8,3 C 69 % 0 lf 1020,1 hPa 0,0 l/m 0 min 0 min 0 W/m 6,8 km/h (2 Bft) 95,65 %
03.05.2018 23:44 10,6 C 8,9 C 7,8 C 69 % 0 lf 1020,1 hPa 0,0 l/m 0 min 0 min 0 W/m 9,0 km/h (2 Bft) 94,44 %
03.05.2018 23:46 10,6 C 8,9 C 7,8 C 70 % 0 lf 1020,1 hPa 0,0 l/m 0 min 0 min 0 W/m 6,8 km/h (2 Bft) 95,74 %
03.05.2018 23:48 10,6 C 8,9 C 7,8 C 70 % 0 lf 1020,1 hPa 0,0 l/m 0 min 0 min 0 W/m 6,8 km/h (2 Bft) 91,49 %
03.05.2018 23:50 10,6 C 8,9 C 7,8 C 70 % 0 lf 1020,1 hPa 0,0 l/m 0 min 0 min 0 W/m 6,8 km/h (2 Bft) 93,62 %
03.05.2018 23:52 10,5 C 8,9 C 7,8 C 70 % 0 lf 1020,1 hPa 0,0 l/m 0 min 0 min 0 W/m 4,5 km/h (1 Bft) 95,74 %
03.05.2018 23:54 10,5 C 8,9 C 7,8 C 70 % 0 lf 1020,1 hPa 0,0 l/m 0 min 0 min 0 W/m 6,8 km/h (2 Bft) 94,74 %
03.05.2018 23:56 10,4 C 8,3 C 7,2 C 70 % 0 lf 1020,1 hPa 0,0 l/m 0 min 0 min 0 W/m 6,8 km/h (2 Bft) 89,36 %
03.05.2018 23:58 10,4 C 8,3 C 7,2 C 70 % 0 lf 1020,1 hPa 0,0 l/m 0 min 0 min 0 W/m 9,0 km/h (2 Bft) 95,74 %
_ Min-Zeit 06:56 05:58 06:12 16:12 00:00 00:02 - - - - 06:00 11:26
Minimum _ 8,2 C 7,2 C 5,6 C 44 % 0 lf 1010,2 hPa - - - - 0,0 km/h (0 Bft) 84,78 %
_ Max-Zeit 16:20 11:56 15:52 07:52 00:00 23:42 00:00 07:24 00:00 13:52 01:54 00:02
Maximum _ 18,6 C 27,8 C 28,3 C 90 % 0 lf 1020,1 hPa 0,0 l/m 2 min 0 min 1054 W/m 31,5 km/h
W-SW (5 Bft)
100,00 %
Durchschnitt _ 13,5 C 15,8 C 13,5 C 66 % 0 lf 1015,7 hPa #0,0 l/m #12:22 h #0 min. 433 W/m 13,1 km/h (3 Bft) 96,42 %
© 2018 W. Hausmann